| time (UTC) | temp C | wind direction | speed KPH | gust KPH | rain 1hr cm | rain 24hr cm | rain mn cm | humidity % | barometer mb |
| 20260506004557 | 7 | 311 | 4.8 | 27.4 | 0.00 | 0.00 | 0.00 | 58 | 1000.6 |
| 20260506004357 | 7 | 153 | 4.8 | 27.4 | 0.00 | 0.00 | 0.00 | 60 | 1000.6 |
| 20260506004257 | 7 | 360 | 16.1 | 27.4 | 0.00 | 0.00 | 0.00 | 59 | 1000.7 |
| 20260506003858 | 7 | 28 | 9.7 | 24.1 | 0.00 | 0.00 | 0.00 | 59 | 1000.7 |
| 20260506003757 | 7 | 35 | 17.7 | 24.1 | 0.00 | 0.00 | 0.00 | 59 | 1000.7 |
| 20260506003658 | 7 | 119 | 8.0 | 24.1 | 0.00 | 0.00 | 0.00 | 58 | 1000.8 |
| 20260506003558 | 7 | 125 | 17.7 | 24.1 | 0.00 | 0.00 | 0.00 | 57 | 1000.7 |
| 20260506003357 | 7 | 122 | 24.1 | 24.1 | 0.00 | 0.00 | 0.00 | 57 | 1000.7 |
| 20260506003257 | 7 | 173 | 4.8 | 22.5 | 0.00 | 0.00 | 0.00 | 56 | 1000.8 |
| 20260506003156 | 7 | 172 | 12.9 | 22.5 | 0.00 | 0.00 | 0.00 | 58 | 1000.7 |
| 20260506003056 | 7 | 39 | 14.5 | 22.5 | 0.00 | 0.00 | 0.00 | 57 | 1000.7 |
| 20260506002856 | 7 | 345 | 4.8 | 22.5 | 0.00 | 0.00 | 0.00 | 58 | 1000.7 |
| 20260506002758 | 7 | 19 | 3.2 | 22.5 | 0.00 | 0.00 | 0.00 | 58 | 1000.8 |
| 20260506002657 | 7 | 340 | 8.0 | 22.5 | 0.00 | 0.00 | 0.00 | 58 | 1000.8 |
| 20260506002459 | 7 | 130 | 11.3 | 12.9 | 0.00 | 0.00 | 0.00 | 58 | 1000.7 |
| 20260506002357 | 7 | 20 | 8.0 | 19.3 | 0.00 | 0.00 | 0.00 | 58 | 1000.7 |
| 20260506002258 | 7 | 40 | 8.0 | 19.3 | 0.00 | 0.00 | 0.00 | 60 | 1000.7 |
| 20260506002157 | 7 | 342 | 1.6 | 19.3 | 0.00 | 0.00 | 0.00 | 60 | 1000.8 |
| 20260506002057 | 7 | 25 | 4.8 | 19.3 | 0.00 | 0.00 | 0.00 | 60 | 1000.8 |
| 20260506001959 | 7 | 38 | 4.8 | 19.3 | 0.00 | 0.00 | 0.00 | 60 | 1000.9 |
| 20260506001858 | 7 | 169 | 0.0 | 19.3 | 0.00 | 0.00 | 0.00 | 59 | 1000.9 |
| 20260506001759 | 7 | 169 | 1.6 | 19.3 | 0.00 | 0.00 | 0.00 | 59 | 1001.0 |
| 20260506001658 | 7 | 190 | 3.2 | 19.3 | 0.00 | 0.00 | 0.00 | 59 | 1001.0 |
| 20260506001557 | 7 | 62 | 16.1 | 19.3 | 0.00 | 0.00 | 0.00 | 59 | 1001.0 |
| 20260506001459 | 7 | 121 | 11.3 | 19.3 | 0.00 | 0.00 | 0.00 | 60 | 1001.0 |
| 20260506001357 | 7 | 134 | 4.8 | 19.3 | 0.00 | 0.00 | 0.00 | 60 | 1001.0 |
| 20260506001257 | 7 | 101 | 6.4 | 19.3 | 0.00 | 0.00 | 0.00 | 60 | 1001.0 |
| 20260506001157 | 7 | 33 | 17.7 | 19.3 | 0.00 | 0.00 | 0.00 | 63 | 1000.9 |
| 20260506001057 | 7 | 36 | 0.0 | 22.5 | 0.00 | 0.00 | 0.00 | 63 | 1000.9 |
| 20260506000959 | 7 | 37 | 1.6 | 22.5 | 0.00 | 0.00 | 0.00 | 62 | 1000.9 |
| 20260506000857 | 7 | 9 | 4.8 | 22.5 | 0.00 | 0.00 | 0.00 | 62 | 1001.0 |
| 20260506000758 | 7 | 28 | 4.8 | 22.5 | 0.00 | 0.00 | 0.00 | 64 | 1001.0 |
| 20260506000658 | 7 | 27 | 14.5 | 22.5 | 0.00 | 0.00 | 0.00 | 62 | 1001.0 |
| 20260506000557 | 7 | 40 | 11.3 | 22.5 | 0.00 | 0.00 | 0.00 | 62 | 1001.0 |
| 20260506000458 | 7 | 69 | 6.4 | 22.5 | 0.00 | 0.00 | 0.00 | 61 | 1001.0 |
| 20260506000356 | 7 | 28 | 6.4 | 22.5 | 0.00 | 0.00 | 0.00 | 61 | 1001.0 |
| 20260506000157 | 7 | 44 | 17.7 | 20.9 | 0.00 | 0.00 | 0.00 | 60 | 1000.9 |
| 20260506000058 | 7 | 5 | 4.8 | 16.1 | 0.00 | 0.00 | 0.00 | 59 | 1000.9 |
| 20260505235857 | 7 | 148 | 9.7 | 16.1 | 0.00 | 0.00 | 0.00 | 61 | 1001.0 |
| 20260505235757 | 7 | 97 | 4.8 | 16.1 | 0.00 | 0.00 | 0.00 | 60 | 1001.0 |
| 20260505235658 | 7 | 135 | 6.4 | 16.1 | 0.00 | 0.00 | 0.00 | 60 | 1001.0 |
| 20260505235558 | 7 | 71 | 6.4 | 16.1 | 0.00 | 0.00 | 0.00 | 60 | 1000.9 |
| 20260505235258 | 7 | 118 | 4.8 | 30.6 | 0.00 | 0.00 | 0.00 | 60 | 1001.0 |
| 20260505235157 | 7 | 119 | 6.4 | 30.6 | 0.00 | 0.00 | 0.00 | 61 | 1001.0 |
| 20260505234857 | 7 | 68 | 1.6 | 30.6 | 0.00 | 0.00 | 0.00 | 64 | 1001.0 |
| 20260505234757 | 7 | 106 | 3.2 | 30.6 | 0.00 | 0.00 | 0.00 | 63 | 1001.0 |
| 20260505234657 | 7 | 115 | 6.4 | 30.6 | 0.00 | 0.00 | 0.00 | 62 | 1001.0 |
| 20260505234557 | 7 | 140 | 12.9 | 30.6 | 0.00 | 0.00 | 0.00 | 62 | 1001.0 |
| 20260505234500 | 7 | 60 | 19.3 | 30.6 | 0.00 | 0.00 | 0.00 | 62 | 1000.9 |
| 20260505234357 | 7 | 60 | 20.9 | 24.1 | 0.00 | 0.00 | 0.00 | 61 | 1001.0 |
| 20260505234257 | 7 | 126 | 3.2 | 24.1 | 0.00 | 0.00 | 0.00 | 61 | 1001.1 |
| 20260505234159 | 7 | 117 | 12.9 | 24.1 | 0.00 | 0.00 | 0.00 | 61 | 1001.0 |
| 20260505234057 | 7 | 129 | 14.5 | 24.1 | 0.00 | 0.00 | 0.00 | 60 | 1001.1 |
| 20260505234003 | 7 | 126 | 16.1 | 24.1 | 0.00 | 0.00 | 0.00 | 60 | 1001.1 |
| 20260505233757 | 8 | 126 | 16.1 | 22.5 | 0.00 | 0.00 | 0.00 | 59 | 1001.1 |
| 20260505233557 | 8 | 96 | 4.8 | 22.5 | 0.00 | 0.00 | 0.00 | 58 | 1001.0 |
| 20260505233458 | 8 | 117 | 16.1 | 22.5 | 0.00 | 0.00 | 0.00 | 59 | 1001.0 |
| 20260505233356 | 8 | 51 | 16.1 | 17.7 | 0.00 | 0.00 | 0.00 | 59 | 1001.0 |
| 20260505233257 | 8 | 36 | 14.5 | 16.1 | 0.00 | 0.00 | 0.00 | 58 | 1001.0 |
| 20260505233157 | 8 | 22 | 9.7 | 16.1 | 0.00 | 0.00 | 0.00 | 60 | 1001.0 |
| 20260505233057 | 8 | 32 | 4.8 | 16.1 | 0.00 | 0.00 | 0.00 | 60 | 1000.9 |
| 20260505232958 | 8 | 67 | 3.2 | 16.1 | 0.00 | 0.00 | 0.00 | 60 | 1001.0 |
| 20260505232757 | 8 | 134 | 3.2 | 16.1 | 0.00 | 0.00 | 0.00 | 58 | 1000.9 |
| 20260505232658 | 8 | 38 | 3.2 | 16.1 | 0.00 | 0.00 | 0.00 | 58 | 1000.9 |
| 20260505232557 | 8 | 67 | 12.9 | 16.1 | 0.00 | 0.00 | 0.00 | 58 | 1000.9 |
| 20260505232500 | 8 | 57 | 8.0 | 16.1 | 0.00 | 0.00 | 0.00 | 58 | 1001.0 |
| 20260505232358 | 8 | 150 | 3.2 | 16.1 | 0.00 | 0.00 | 0.00 | 58 | 1001.0 |
| 20260505232258 | 8 | 123 | 14.5 | 16.1 | 0.00 | 0.00 | 0.00 | 58 | 1000.9 |
| 20260505232158 | 8 | 178 | 4.8 | 16.1 | 0.00 | 0.00 | 0.00 | 58 | 1001.0 |
| 20260505232057 | 8 | 147 | 12.9 | 16.1 | 0.00 | 0.00 | 0.00 | 58 | 1001.0 |
| 20260505231959 | 8 | 119 | 12.9 | 17.7 | 0.00 | 0.00 | 0.00 | 58 | 1001.1 |
| 20260505231857 | 8 | 121 | 14.5 | 17.7 | 0.00 | 0.00 | 0.00 | 58 | 1001.0 |
| 20260505231757 | 8 | 40 | 4.8 | 17.7 | 0.00 | 0.00 | 0.00 | 58 | 1001.0 |
| 20260505231658 | 8 | 104 | 1.6 | 17.7 | 0.00 | 0.00 | 0.00 | 58 | 1001.0 |
| 20260505231557 | 8 | 104 | 3.2 | 17.7 | 0.00 | 0.00 | 0.00 | 58 | 1001.0 |
| 20260505231458 | 8 | 100 | 4.8 | 17.7 | 0.00 | 0.00 | 0.00 | 58 | 1001.0 |
| 20260505231357 | 8 | 85 | 3.2 | 17.7 | 0.00 | 0.00 | 0.00 | 59 | 1001.0 |
| 20260505231258 | 8 | 146 | 1.6 | 17.7 | 0.00 | 0.00 | 0.00 | 58 | 1001.0 |
| 20260505231157 | 8 | 130 | 12.9 | 17.7 | 0.00 | 0.00 | 0.00 | 60 | 1000.9 |
| 20260505231058 | 8 | 140 | 1.6 | 14.5 | 0.00 | 0.00 | 0.00 | 61 | 1001.0 |
| 20260505230857 | 8 | 134 | 1.6 | 14.5 | 0.00 | 0.00 | 0.00 | 62 | 1000.9 |
| 20260505230658 | 8 | 148 | 4.8 | 17.7 | 0.00 | 0.00 | 0.00 | 61 | 1000.9 |
| 20260505230459 | 8 | 151 | 8.0 | 17.7 | 0.00 | 0.00 | 0.00 | 60 | 1001.0 |
| 20260505230357 | 8 | 121 | 6.4 | 17.7 | 0.00 | 0.00 | 0.00 | 60 | 1001.0 |
| 20260505230258 | 7 | 109 | 6.4 | 17.7 | 0.00 | 0.00 | 0.00 | 60 | 1001.0 |
| 20260505230157 | 7 | 149 | 4.8 | 19.3 | 0.00 | 0.00 | 0.00 | 59 | 1001.0 |
| 20260505230057 | 8 | 42 | 8.0 | 19.3 | 0.00 | 0.00 | 0.00 | 60 | 1001.0 |
| 20260505225959 | 8 | 30 | 4.8 | 19.3 | 0.00 | 0.00 | 0.00 | 59 | 1001.0 |
| 20260505225857 | 8 | 107 | 16.1 | 19.3 | 0.00 | 0.00 | 0.00 | 59 | 1001.0 |
| 20260505225757 | 8 | 109 | 9.7 | 19.3 | 0.00 | 0.00 | 0.00 | 60 | 1001.0 |
| 20260505225558 | 8 | 105 | 6.4 | 19.3 | 0.00 | 0.00 | 0.00 | 59 | 1000.9 |
| 20260505225357 | 8 | 126 | 17.7 | 17.7 | 0.00 | 0.00 | 0.00 | 58 | 1000.9 |
| 20260505225257 | 8 | 137 | 12.9 | 17.7 | 0.00 | 0.00 | 0.00 | 60 | 1000.9 |
| 20260505225157 | 8 | 112 | 14.5 | 17.7 | 0.00 | 0.00 | 0.00 | 60 | 1000.9 |
| 20260505225056 | 8 | 144 | 12.9 | 17.7 | 0.00 | 0.00 | 0.00 | 59 | 1000.9 |
| 20260505224857 | 7 | 137 | 4.8 | 11.3 | 0.00 | 0.00 | 0.00 | 59 | 1000.8 |
| 20260505224757 | 7 | 153 | 0.0 | 16.1 | 0.00 | 0.00 | 0.00 | 59 | 1000.9 |
| 20260505224558 | 7 | 124 | 8.0 | 16.1 | 0.00 | 0.00 | 0.00 | 59 | 1000.8 |
| 20260505224458 | 7 | 162 | 3.2 | 16.1 | 0.00 | 0.00 | 0.00 | 61 | 1000.9 |
| 20260505224357 | 7 | 147 | 6.4 | 16.1 | 0.00 | 0.00 | 0.00 | 60 | 1000.9 |
| 20260505224257 | 7 | 148 | 9.7 | 16.1 | 0.00 | 0.00 | 0.00 | 60 | 1000.8 |
| 20260505224157 | 7 | 183 | 6.4 | 16.1 | 0.00 | 0.00 | 0.00 | 60 | 1000.7 |
| 20260505224057 | 7 | 180 | 4.8 | 16.1 | 0.00 | 0.00 | 0.00 | 60 | 1000.8 |
| 20260505224000 | 7 | 167 | 9.7 | 16.1 | 0.00 | 0.00 | 0.00 | 61 | 1000.8 |
| 20260505223759 | 7 | 117 | 6.4 | 16.1 | 0.00 | 0.00 | 0.00 | 65 | 1000.7 |
| 20260505223557 | 7 | 326 | 4.8 | 12.9 | 0.00 | 0.00 | 0.00 | 68 | 1000.7 |
| 20260505223459 | 7 | 345 | 3.2 | 12.9 | 0.00 | 0.00 | 0.00 | 67 | 1000.7 |
| 20260505223256 | 7 | 349 | 4.8 | 12.9 | 0.00 | 0.00 | 0.00 | 69 | 1000.7 |
| 20260505223159 | 7 | 307 | 1.6 | 12.9 | 0.00 | 0.00 | 0.00 | 68 | 1000.6 |
| 20260505223058 | 7 | 306 | 4.8 | 12.9 | 0.00 | 0.00 | 0.00 | 68 | 1000.6 |
| 20260505222958 | 7 | 312 | 6.4 | 12.9 | 0.00 | 0.00 | 0.00 | 69 | 1000.6 |
| 20260505222857 | 7 | 5 | 4.8 | 12.9 | 0.00 | 0.00 | 0.00 | 68 | 1000.6 |
| 20260505222757 | 7 | 329 | 6.4 | 12.9 | 0.00 | 0.00 | 0.00 | 69 | 1000.6 |
| 20260505222658 | 7 | 285 | 6.4 | 11.3 | 0.00 | 0.00 | 0.00 | 70 | 1000.6 |
| 20260505222557 | 7 | 277 | 4.8 | 9.7 | 0.00 | 0.00 | 0.00 | 71 | 1000.6 |
| 20260505222459 | 7 | 278 | 3.2 | 8.0 | 0.00 | 0.00 | 0.00 | 71 | 1000.6 |
| 20260505222357 | 7 | 283 | 3.2 | 8.0 | 0.00 | 0.00 | 0.00 | 71 | 1000.6 |
| 20260505222158 | 7 | 293 | 6.4 | 8.0 | 0.00 | 0.00 | 0.00 | 71 | 1000.7 |
| 20260505222058 | 7 | 318 | 4.8 | 8.0 | 0.00 | 0.00 | 0.00 | 71 | 1000.7 |
| 20260505221958 | 7 | 342 | 6.4 | 8.0 | 0.00 | 0.00 | 0.00 | 72 | 1000.7 |
| 20260505221858 | 7 | 13 | 3.2 | 8.0 | 0.00 | 0.00 | 0.00 | 71 | 1000.7 |
| 20260505221757 | 7 | 13 | 6.4 | 11.3 | 0.00 | 0.00 | 0.00 | 71 | 1000.7 |
| 20260505221657 | 7 | 315 | 4.8 | 11.3 | 0.00 | 0.00 | 0.00 | 72 | 1000.7 |
| 20260505221558 | 7 | 285 | 4.8 | 11.3 | 0.00 | 0.00 | 0.00 | 72 | 1000.8 |
| 20260505221459 | 7 | 284 | 3.2 | 11.3 | 0.00 | 0.00 | 0.00 | 71 | 1000.7 |
| 20260505221357 | 7 | 285 | 3.2 | 11.3 | 0.00 | 0.00 | 0.00 | 72 | 1000.7 |
| 20260505221256 | 7 | 290 | 4.8 | 12.9 | 0.00 | 0.00 | 0.00 | 72 | 1000.7 |
| 20260505221157 | 7 | 292 | 6.4 | 12.9 | 0.00 | 0.00 | 0.00 | 71 | 1000.7 |
| 20260505221056 | 7 | 292 | 4.8 | 12.9 | 0.00 | 0.00 | 0.00 | 71 | 1000.7 |
| 20260505220958 | 7 | 288 | 3.2 | 12.9 | 0.00 | 0.00 | 0.00 | 71 | 1000.7 |
| 20260505220857 | 7 | 288 | 6.4 | 12.9 | 0.00 | 0.00 | 0.00 | 71 | 1000.7 |
| 20260505220756 | 7 | 338 | 6.4 | 12.9 | 0.00 | 0.00 | 0.00 | 71 | 1000.7 |
| 20260505220657 | 7 | 331 | 6.4 | 12.9 | 0.00 | 0.00 | 0.00 | 71 | 1000.7 |
| 20260505220557 | 7 | 302 | 3.2 | 12.9 | 0.00 | 0.00 | 0.00 | 70 | 1000.7 |
| 20260505220357 | 7 | 291 | 11.3 | 12.9 | 0.00 | 0.00 | 0.00 | 71 | 1000.6 |
| 20260505220258 | 7 | 315 | 6.4 | 12.9 | 0.00 | 0.00 | 0.00 | 72 | 1000.6 |
| 20260505220158 | 7 | 296 | 3.2 | 12.9 | 0.00 | 0.00 | 0.00 | 72 | 1000.6 |
| 20260505220058 | 7 | 296 | 4.8 | 12.9 | 0.00 | 0.00 | 0.00 | 73 | 1000.6 |
| 20260505215858 | 7 | 298 | 6.4 | 12.9 | 0.00 | 0.00 | 0.00 | 72 | 1000.7 |
| 20260505215758 | 7 | 300 | 6.4 | 12.9 | 0.00 | 0.00 | 0.00 | 72 | 1000.6 |
| 20260505215658 | 7 | 325 | 9.7 | 12.9 | 0.00 | 0.00 | 0.00 | 72 | 1000.6 |
| 20260505215558 | 7 | 292 | 6.4 | 12.9 | 0.00 | 0.00 | 0.00 | 72 | 1000.6 |
| 20260505215458 | 7 | 355 | 4.8 | 12.9 | 0.00 | 0.00 | 0.00 | 72 | 1000.6 |
| 20260505215358 | 7 | 355 | 3.2 | 12.9 | 0.00 | 0.00 | 0.00 | 72 | 1000.6 |
| 20260505215257 | 7 | 296 | 6.4 | 12.9 | 0.00 | 0.00 | 0.00 | 73 | 1000.6 |
| 20260505215157 | 7 | 284 | 4.8 | 9.7 | 0.00 | 0.00 | 0.00 | 72 | 1000.6 |
| 20260505214958 | 7 | 282 | 3.2 | 11.3 | 0.00 | 0.00 | 0.00 | 72 | 1000.6 |
| 20260505214856 | 7 | 294 | 3.2 | 14.5 | 0.00 | 0.00 | 0.00 | 72 | 1000.6 |
| 20260505214757 | 7 | 294 | 3.2 | 14.5 | 0.00 | 0.00 | 0.00 | 72 | 1000.6 |
| 20260505214657 | 7 | 288 | 4.8 | 14.5 | 0.00 | 0.00 | 0.00 | 72 | 1000.5 |
| 20260505214458 | 7 | 284 | 4.8 | 14.5 | 0.00 | 0.00 | 0.00 | 72 | 1000.6 |
| 20260505214358 | 7 | 282 | 3.2 | 14.5 | 0.00 | 0.00 | 0.00 | 72 | 1000.5 |
| 20260505214259 | 7 | 249 | 1.6 | 14.5 | 0.00 | 0.00 | 0.00 | 72 | 1000.5 |
| 20260505214157 | 7 | 267 | 6.4 | 14.5 | 0.00 | 0.00 | 0.00 | 73 | 1000.5 |
| 20260505214057 | 7 | 288 | 1.6 | 14.5 | 0.00 | 0.00 | 0.00 | 73 | 1000.5 |
| 20260505213959 | 7 | 286 | 6.4 | 11.3 | 0.00 | 0.00 | 0.00 | 73 | 1000.5 |
| 20260505213857 | 7 | 281 | 4.8 | 11.3 | 0.00 | 0.00 | 0.00 | 74 | 1000.4 |
| 20260505213757 | 7 | 267 | 3.2 | 11.3 | 0.00 | 0.00 | 0.00 | 74 | 1000.4 |
| 20260505213657 | 7 | 287 | 4.8 | 11.3 | 0.00 | 0.00 | 0.00 | 74 | 1000.4 |
| 20260505213557 | 7 | 286 | 3.2 | 11.3 | 0.00 | 0.00 | 0.00 | 74 | 1000.5 |
| 20260505213500 | 7 | 288 | 4.8 | 11.3 | 0.00 | 0.00 | 0.00 | 74 | 1000.4 |
| 20260505213357 | 7 | 243 | 6.4 | 11.3 | 0.00 | 0.00 | 0.00 | 74 | 1000.4 |
| 20260505213258 | 6 | 299 | 1.6 | 12.9 | 0.00 | 0.00 | 0.00 | 74 | 1000.4 |
| 20260505213157 | 6 | 300 | 4.8 | 16.1 | 0.00 | 0.00 | 0.00 | 74 | 1000.4 |
| 20260505213058 | 6 | 286 | 4.8 | 16.1 | 0.00 | 0.00 | 0.00 | 74 | 1000.4 |
| 20260505212958 | 6 | 262 | 6.4 | 16.1 | 0.00 | 0.00 | 0.00 | 75 | 1000.4 |
| 20260505212856 | 6 | 277 | 4.8 | 16.1 | 0.00 | 0.00 | 0.00 | 74 | 1000.4 |
| 20260505212757 | 6 | 338 | 6.4 | 16.1 | 0.00 | 0.00 | 0.00 | 74 | 1000.3 |
| 20260505212658 | 6 | 351 | 4.8 | 16.1 | 0.00 | 0.00 | 0.00 | 73 | 1000.4 |
| 20260505212458 | 7 | 350 | 9.7 | 16.1 | 0.00 | 0.00 | 0.00 | 74 | 1000.3 |
| 20260505212357 | 7 | 348 | 12.9 | 16.1 | 0.00 | 0.00 | 0.00 | 74 | 1000.3 |
| 20260505212257 | 7 | 288 | 12.9 | 14.5 | 0.00 | 0.00 | 0.00 | 74 | 1000.3 |
| 20260505212157 | 7 | 311 | 6.4 | 14.5 | 0.00 | 0.00 | 0.00 | 73 | 1000.3 |
| 20260505212059 | 7 | 290 | 3.2 | 14.5 | 0.00 | 0.00 | 0.00 | 74 | 1000.3 |
| 20260505211958 | 7 | 290 | 4.8 | 14.5 | 0.00 | 0.00 | 0.00 | 74 | 1000.3 |
| 20260505211858 | 7 | 304 | 4.8 | 14.5 | 0.00 | 0.00 | 0.00 | 74 | 1000.3 |
| 20260505211657 | 7 | 259 | 4.8 | 16.1 | 0.00 | 0.00 | 0.00 | 74 | 1000.3 |
| 20260505211502 | 7 | 288 | 6.4 | 16.1 | 0.00 | 0.00 | 0.00 | 75 | 1000.3 |
| 20260505211358 | 7 | 244 | 4.8 | 16.1 | 0.00 | 0.00 | 0.00 | 76 | 1000.3 |
| 20260505211257 | 6 | 327 | 8.0 | 16.1 | 0.00 | 0.00 | 0.00 | 76 | 1000.3 |
| 20260505211157 | 6 | 342 | 4.8 | 16.1 | 0.00 | 0.00 | 0.00 | 77 | 1000.3 |
| 20260505211057 | 6 | 302 | 3.2 | 16.1 | 0.00 | 0.00 | 0.00 | 76 | 1000.3 |
| 20260505210959 | 6 | 303 | 6.4 | 16.1 | 0.00 | 0.00 | 0.00 | 76 | 1000.2 |
| 20260505210856 | 7 | 304 | 6.4 | 14.5 | 0.00 | 0.00 | 0.00 | 76 | 1000.2 |
| 20260505210757 | 7 | 298 | 8.0 | 14.5 | 0.00 | 0.00 | 0.00 | 76 | 1000.2 |
| 20260505210659 | 7 | 350 | 14.5 | 14.5 | 0.00 | 0.00 | 0.00 | 76 | 1000.1 |
| 20260505210558 | 7 | 351 | 3.2 | 14.5 | 0.00 | 0.00 | 0.00 | 77 | 1000.1 |
| 20260505210458 | 7 | 322 | 4.8 | 12.9 | 0.00 | 0.00 | 0.00 | 77 | 1000.1 |
| 20260505210358 | 6 | 340 | 4.8 | 12.9 | 0.00 | 0.00 | 0.00 | 78 | 1000.2 |
| 20260505210256 | 6 | 323 | 1.6 | 12.9 | 0.00 | 0.00 | 0.00 | 77 | 1000.1 |
| 20260505210058 | 6 | 284 | 6.4 | 12.9 | 0.00 | 0.00 | 0.00 | 77 | 1000.1 |
| 20260505205758 | 6 | 296 | 11.3 | 12.9 | 0.00 | 0.00 | 0.00 | 77 | 1000.2 |
| 20260505205656 | 6 | 300 | 6.4 | 12.9 | 0.00 | 0.00 | 0.00 | 78 | 1000.2 |
| 20260505205558 | 6 | 300 | 4.8 | 12.9 | 0.00 | 0.00 | 0.00 | 78 | 1000.1 |
| 20260505205459 | 6 | 298 | 4.8 | 12.9 | 0.00 | 0.00 | 0.00 | 78 | 1000.1 |
| 20260505205357 | 6 | 309 | 4.8 | 12.9 | 0.00 | 0.00 | 0.00 | 78 | 1000.1 |
| 20260505205258 | 6 | 279 | 6.4 | 12.9 | 0.00 | 0.00 | 0.00 | 78 | 1000.1 |
| 20260505205157 | 6 | 277 | 4.8 | 12.9 | 0.00 | 0.00 | 0.00 | 78 | 1000.1 |
| 20260505205057 | 6 | 240 | 1.6 | 12.9 | 0.00 | 0.00 | 0.00 | 78 | 1000.1 |
| 20260505204958 | 6 | 238 | 1.6 | 12.9 | 0.00 | 0.00 | 0.00 | 78 | 1000.1 |
| 20260505204856 | 6 | 256 | 6.4 | 12.9 | 0.00 | 0.00 | 0.00 | 78 | 1000.1 |
| 20260505204757 | 6 | 284 | 4.8 | 14.5 | 0.00 | 0.00 | 0.00 | 78 | 1000.0 |
| 20260505204558 | 6 | 304 | 8.0 | 14.5 | 0.00 | 0.00 | 0.00 | 78 | 1000.1 |
| 20260505204357 | 6 | 340 | 4.8 | 17.7 | 0.00 | 0.00 | 0.00 | 78 | 1000.0 |
| 20260505204257 | 6 | 303 | 3.2 | 17.7 | 0.00 | 0.00 | 0.00 | 78 | 999.9 |
| 20260505203958 | 6 | 317 | 6.4 | 17.7 | 0.00 | 0.00 | 0.00 | 78 | 1000.0 |
| 20260505203857 | 6 | 290 | 3.2 | 17.7 | 0.00 | 0.00 | 0.00 | 78 | 1000.0 |
| 20260505203758 | 6 | 293 | 12.9 | 17.7 | 0.00 | 0.00 | 0.00 | 78 | 1000.0 |
| 20260505203658 | 6 | 304 | 12.9 | 17.7 | 0.00 | 0.00 | 0.00 | 79 | 999.9 |
| 20260505203557 | 6 | 309 | 11.3 | 17.7 | 0.00 | 0.00 | 0.00 | 79 | 999.9 |
| 20260505203458 | 6 | 303 | 6.4 | 17.7 | 0.00 | 0.00 | 0.00 | 79 | 999.9 |
| 20260505203257 | 6 | 292 | 14.5 | 17.7 | 0.00 | 0.00 | 0.00 | 79 | 1000.0 |
| 20260505203157 | 6 | 291 | 11.3 | 17.7 | 0.00 | 0.00 | 0.00 | 79 | 1000.0 |
| 20260505203056 | 6 | 282 | 4.8 | 17.7 | 0.00 | 0.00 | 0.00 | 79 | 1000.0 |
| 20260505202857 | 6 | 337 | 8.0 | 17.7 | 0.00 | 0.00 | 0.00 | 78 | 1000.0 |
| 20260505202757 | 6 | 318 | 8.0 | 17.7 | 0.00 | 0.00 | 0.00 | 78 | 999.9 |
| 20260505202659 | 6 | 315 | 9.7 | 17.7 | 0.00 | 0.00 | 0.00 | 78 | 999.9 |
| 20260505202557 | 6 | 300 | 12.9 | 17.7 | 0.00 | 0.00 | 0.00 | 78 | 999.9 |
| 20260505202505 | 6 | 288 | 12.9 | 17.7 | 0.00 | 0.00 | 0.00 | 79 | 999.9 |
| 20260505202357 | 6 | 331 | 8.0 | 16.1 | 0.00 | 0.00 | 0.00 | 79 | 999.8 |
| 20260505202257 | 6 | 329 | 6.4 | 16.1 | 0.00 | 0.00 | 0.00 | 79 | 999.8 |
| 20260505202156 | 6 | 277 | 4.8 | 16.1 | 0.00 | 0.00 | 0.00 | 80 | 999.8 |
| 20260505202058 | 6 | 303 | 6.4 | 16.1 | 0.00 | 0.00 | 0.00 | 79 | 999.8 |
| 20260505202004 | 6 | 282 | 4.8 | 16.1 | 0.00 | 0.00 | 0.00 | 80 | 999.8 |
| 20260505201857 | 6 | 317 | 4.8 | 16.1 | 0.00 | 0.00 | 0.00 | 80 | 999.8 |
| 20260505201756 | 6 | 287 | 6.4 | 16.1 | 0.00 | 0.00 | 0.00 | 79 | 999.8 |
| 20260505201557 | 6 | 242 | 9.7 | 17.7 | 0.00 | 0.00 | 0.00 | 79 | 999.7 |
| 20260505201459 | 6 | 320 | 4.8 | 17.7 | 0.00 | 0.00 | 0.00 | 78 | 999.7 |
| 20260505201357 | 6 | 321 | 6.4 | 17.7 | 0.00 | 0.00 | 0.00 | 78 | 999.7 |
| 20260505201257 | 6 | 355 | 9.7 | 17.7 | 0.00 | 0.00 | 0.00 | 78 | 999.7 |
| 20260505201157 | 6 | 350 | 12.9 | 17.7 | 0.00 | 0.00 | 0.00 | 78 | 999.7 |
| 20260505201056 | 6 | 273 | 4.8 | 17.7 | 0.00 | 0.00 | 0.00 | 77 | 999.7 |
| 20260505200958 | 6 | 299 | 12.9 | 17.7 | 0.00 | 0.00 | 0.00 | 77 | 999.6 |
| 20260505200757 | 6 | 313 | 8.0 | 17.7 | 0.00 | 0.00 | 0.00 | 78 | 999.6 |
| 20260505200659 | 6 | 297 | 14.5 | 17.7 | 0.00 | 0.00 | 0.00 | 78 | 999.6 |
| 20260505200556 | 6 | 304 | 12.9 | 24.1 | 0.00 | 0.00 | 0.00 | 78 | 999.6 |
| 20260505200459 | 6 | 262 | 12.9 | 24.1 | 0.00 | 0.00 | 0.00 | 78 | 999.6 |
| 20260505200356 | 6 | 346 | 16.1 | 24.1 | 0.00 | 0.00 | 0.00 | 78 | 999.6 |
| 20260505200257 | 6 | 340 | 9.7 | 24.1 | 0.00 | 0.00 | 0.00 | 78 | 999.6 |
| 20260505200058 | 6 | 288 | 3.2 | 24.1 | 0.00 | 0.00 | 0.00 | 78 | 999.6 |
| 20260505195959 | 6 | 309 | 8.0 | 24.1 | 0.00 | 0.00 | 0.00 | 77 | 999.6 |
| 20260505195858 | 6 | 292 | 14.5 | 24.1 | 0.00 | 0.00 | 0.00 | 76 | 999.6 |
| 20260505195757 | 6 | 275 | 22.5 | 24.1 | 0.00 | 0.00 | 0.00 | 76 | 999.6 |
| 20260505195556 | 6 | 311 | 14.5 | 17.7 | 0.00 | 0.00 | 0.00 | 74 | 999.4 |
| 20260505195459 | 6 | 275 | 6.4 | 16.1 | 0.00 | 0.00 | 0.00 | 75 | 999.3 |
| 20260505195358 | 6 | 16 | 6.4 | 16.1 | 0.00 | 0.00 | 0.00 | 73 | 999.5 |
| 20260505195258 | 6 | 281 | 9.7 | 16.1 | 0.00 | 0.00 | 0.00 | 72 | 999.5 |
| 20260505195157 | 7 | 273 | 12.9 | 16.1 | 0.00 | 0.00 | 0.00 | 73 | 999.5 |
| 20260505195057 | 7 | 215 | 6.4 | 16.1 | 0.00 | 0.00 | 0.00 | 72 | 999.5 |
| 20260505194958 | 7 | 217 | 8.0 | 16.1 | 0.00 | 0.00 | 0.00 | 69 | 999.4 |
| 20260505194857 | 7 | 291 | 12.9 | 20.9 | 0.00 | 0.00 | 0.00 | 63 | 999.5 |
| 20260505194757 | 7 | 282 | 12.9 | 20.9 | 0.00 | 0.00 | 0.00 | 61 | 999.5 |
| 20260505194657 | 7 | 227 | 9.7 | 20.9 | 0.00 | 0.00 | 0.00 | 66 | 999.4 |
| 20260505194558 | 7 | 302 | 4.8 | 20.9 | 0.00 | 0.00 | 0.00 | 67 | 999.4 |
| 20260505194459 | 7 | 355 | 6.4 | 20.9 | 0.00 | 0.00 | 0.00 | 77 | 999.4 |
| 20260505194357 | 7 | 248 | 6.4 | 20.9 | 0.00 | 0.00 | 0.00 | 77 | 999.2 |
| 20260505194257 | 7 | 65 | 6.4 | 20.9 | 0.00 | 0.00 | 0.00 | 76 | 999.3 |
| 20260505194156 | 7 | 301 | 4.8 | 20.9 | 0.00 | 0.00 | 0.00 | 76 | 999.4 |
| 20260505194056 | 7 | 207 | 16.1 | 20.9 | 0.00 | 0.00 | 0.00 | 75 | 999.4 |
| 20260505193858 | 7 | 276 | 4.8 | 17.7 | 0.00 | 0.00 | 0.00 | 75 | 999.4 |
| 20260505193758 | 7 | 302 | 4.8 | 17.7 | 0.00 | 0.00 | 0.00 | 72 | 999.4 |
| 20260505193658 | 7 | 248 | 11.3 | 25.7 | 0.00 | 0.00 | 0.00 | 68 | 999.5 |
| 20260505193459 | 7 | 207 | 12.9 | 25.7 | 0.00 | 0.00 | 0.00 | 57 | 999.3 |
| 20260505193357 | 7 | 231 | 12.9 | 25.7 | 0.00 | 0.00 | 0.00 | 66 | 999.3 |
| 20260505193157 | 7 | 229 | 4.8 | 25.7 | 0.00 | 0.00 | 0.00 | 68 | 999.3 |
| 20260505193057 | 7 | 269 | 1.6 | 25.7 | 0.00 | 0.00 | 0.00 | 72 | 999.3 |
| 20260505192958 | 7 | 259 | 6.4 | 25.7 | 0.00 | 0.00 | 0.00 | 69 | 999.4 |
| 20260505192856 | 7 | 292 | 11.3 | 25.7 | 0.00 | 0.00 | 0.00 | 63 | 999.2 |
| 20260505192757 | 7 | 324 | 24.1 | 25.7 | 0.00 | 0.00 | 0.00 | 62 | 999.3 |
| 20260505192658 | 6 | 261 | 4.8 | 14.5 | 0.00 | 0.00 | 0.00 | 62 | 999.3 |
| 20260505192557 | 6 | 261 | 0.0 | 14.5 | 0.00 | 0.00 | 0.00 | 63 | 999.3 |
| 20260505192500 | 6 | 181 | 9.7 | 14.5 | 0.00 | 0.00 | 0.00 | 69 | 999.3 |
| 20260505192357 | 6 | 262 | 6.4 | 17.7 | 0.00 | 0.00 | 0.00 | 66 | 999.4 |
| 20260505192259 | 6 | 240 | 8.0 | 17.7 | 0.00 | 0.00 | 0.00 | 72 | 999.3 |
| 20260505192157 | 6 | 268 | 0.0 | 17.7 | 0.00 | 0.00 | 0.00 | 73 | 999.3 |
| 20260505192003 | 6 | 274 | 9.7 | 19.3 | 0.00 | 0.00 | 0.00 | 72 | 999.3 |
| 20260505191857 | 6 | 229 | 8.0 | 22.5 | 0.00 | 0.00 | 0.00 | 78 | 999.2 |
| 20260505191757 | 6 | 64 | 8.0 | 24.1 | 0.00 | 0.00 | 0.00 | 75 | 999.2 |
| 20260505191657 | 6 | 30 | 8.0 | 24.1 | 0.00 | 0.00 | 0.00 | 73 | 999.3 |
| 20260505191558 | 6 | 94 | 11.3 | 24.1 | 0.00 | 0.00 | 0.00 | 74 | 999.2 |
| 20260505191458 | 6 | 256 | 17.7 | 24.1 | 0.00 | 0.00 | 0.00 | 79 | 999.2 |
| 20260505191357 | 6 | 351 | 9.7 | 24.1 | 0.00 | 0.00 | 0.00 | 80 | 999.3 |
| 20260505191257 | 6 | 271 | 11.3 | 24.1 | 0.00 | 0.00 | 0.00 | 80 | 999.2 |
| 20260505191157 | 6 | 298 | 12.9 | 24.1 | 0.00 | 0.00 | 0.00 | 78 | 999.2 |
| 20260505191057 | 6 | 303 | 11.3 | 25.7 | 0.00 | 0.00 | 0.00 | 78 | 999.2 |
| 20260505190959 | 6 | 210 | 8.0 | 25.7 | 0.00 | 0.00 | 0.00 | 80 | 999.0 |
| 20260505190857 | 6 | 77 | 19.3 | 25.7 | 0.00 | 0.00 | 0.00 | 81 | 999.1 |
| 20260505190657 | 5 | 287 | 8.0 | 25.7 | 0.00 | 0.00 | 0.00 | 80 | 999.2 |
| 20260505190556 | 5 | 67 | 3.2 | 25.7 | 0.00 | 0.00 | 0.00 | 81 | 999.2 |
| 20260505190458 | 5 | 360 | 4.8 | 25.7 | 0.00 | 0.00 | 0.00 | 81 | 999.2 |
| 20260505190358 | 5 | 262 | 3.2 | 25.7 | 0.00 | 0.00 | 0.00 | 81 | 999.1 |
| 20260505190156 | 5 | 259 | 19.3 | 25.7 | 0.00 | 0.00 | 0.00 | 84 | 999.1 |
| 20260505190057 | 5 | 25 | 8.0 | 14.5 | 0.00 | 0.00 | 0.00 | 84 | 999.2 |
| 20260505185857 | 5 | 333 | 4.8 | 16.1 | 0.00 | 0.05 | 0.00 | 84 | 999.3 |
| 20260505185758 | 5 | 279 | 4.8 | 16.1 | 0.00 | 0.05 | 0.00 | 84 | 999.3 |
| 20260505185656 | 5 | 221 | 1.6 | 16.1 | 0.00 | 0.05 | 0.00 | 83 | 999.2 |
| 20260505185557 | 5 | 219 | 1.6 | 16.1 | 0.00 | 0.05 | 0.00 | 84 | 999.2 |
| 20260505185357 | 5 | 276 | 3.2 | 16.1 | 0.00 | 0.05 | 0.00 | 85 | 999.2 |
| 20260505185257 | 5 | 290 | 4.8 | 16.1 | 0.00 | 0.05 | 0.00 | 85 | 999.2 |
| 20260505185158 | 5 | 294 | 12.9 | 16.1 | 0.00 | 0.05 | 0.00 | 85 | 999.2 |
| 20260505185056 | 5 | 297 | 14.5 | 16.1 | 0.00 | 0.05 | 0.00 | 85 | 999.2 |
| 20260505184757 | 5 | 256 | 8.0 | 16.1 | 0.00 | 0.05 | 0.00 | 85 | 999.3 |
| 20260505184657 | 5 | 259 | 3.2 | 17.7 | 0.00 | 0.05 | 0.00 | 85 | 999.3 |
| 20260505184557 | 5 | 301 | 3.2 | 17.7 | 0.00 | 0.05 | 0.00 | 85 | 999.2 |
| 20260505184459 | 5 | 285 | 9.7 | 17.7 | 0.00 | 0.05 | 0.00 | 84 | 999.2 |
| 20260505184257 | 5 | 322 | 6.4 | 22.5 | 0.00 | 0.05 | 0.00 | 84 | 999.3 |
| 20260505184156 | 5 | 302 | 8.0 | 22.5 | 0.00 | 0.05 | 0.00 | 84 | 999.3 |
| 20260505184056 | 5 | 317 | 9.7 | 22.5 | 0.00 | 0.05 | 0.00 | 84 | 999.2 |
| 20260505183958 | 5 | 303 | 8.0 | 22.5 | 0.00 | 0.05 | 0.00 | 83 | 999.2 |
| 20260505183857 | 5 | 293 | 6.4 | 22.5 | 0.00 | 0.05 | 0.00 | 83 | 999.2 |
| 20260505183756 | 5 | 296 | 16.1 | 22.5 | 0.00 | 0.05 | 0.00 | 82 | 999.2 |
| 20260505183657 | 5 | 329 | 14.5 | 22.5 | 0.00 | 0.05 | 0.00 | 82 | 999.2 |
| 20260505183557 | 5 | 348 | 19.3 | 22.5 | 0.00 | 0.05 | 0.00 | 81 | 999.1 |
| 20260505183459 | 5 | 298 | 14.5 | 22.5 | 0.00 | 0.05 | 0.00 | 80 | 999.1 |
| 20260505183256 | 6 | 297 | 8.0 | 22.5 | 0.00 | 0.05 | 0.00 | 75 | 999.2 |
| 20260505183158 | 6 | 136 | 4.8 | 22.5 | 0.00 | 0.05 | 0.00 | 76 | 999.0 |
| 20260505183057 | 6 | 102 | 12.9 | 22.5 | 0.00 | 0.05 | 0.00 | 75 | 999.1 |
| 20260505182959 | 6 | 92 | 12.9 | 22.5 | 0.00 | 0.05 | 0.00 | 75 | 999.1 |
| 20260505182856 | 6 | 51 | 6.4 | 20.9 | 0.00 | 0.05 | 0.00 | 74 | 999.0 |
| 20260505182757 | 6 | 88 | 4.8 | 20.9 | 0.00 | 0.05 | 0.00 | 70 | 999.0 |
| 20260505182657 | 6 | 43 | 8.0 | 29.0 | 0.00 | 0.05 | 0.00 | 63 | 999.0 |
| 20260505182557 | 6 | 123 | 0.0 | 29.0 | 0.00 | 0.05 | 0.00 | 64 | 998.9 |
| 20260505182459 | 6 | 121 | 6.4 | 29.0 | 0.00 | 0.05 | 0.00 | 66 | 998.9 |
| 20260505182358 | 6 | 84 | 14.5 | 29.0 | 0.00 | 0.05 | 0.00 | 62 | 998.9 |
| 20260505182256 | 6 | 138 | 20.9 | 29.0 | 0.00 | 0.05 | 0.00 | 62 | 999.0 |
| 20260505182158 | 6 | 196 | 3.2 | 29.0 | 0.00 | 0.05 | 0.00 | 62 | 998.9 |
| 20260505181958 | 6 | 109 | 12.9 | 29.0 | 0.00 | 0.05 | 0.00 | 62 | 998.9 |
| 20260505181857 | 6 | 160 | 16.1 | 20.9 | 0.00 | 0.05 | 0.00 | 61 | 998.9 |
| 20260505181758 | 6 | 119 | 11.3 | 20.9 | 0.00 | 0.05 | 0.00 | 61 | 998.8 |
| 20260505181657 | 6 | 317 | 0.0 | 20.9 | 0.00 | 0.05 | 0.00 | 61 | 998.8 |
| 20260505181558 | 6 | 317 | 4.8 | 20.9 | 0.00 | 0.05 | 0.00 | 61 | 998.9 |
| 20260505181459 | 6 | 150 | 8.0 | 19.3 | 0.00 | 0.05 | 0.00 | 62 | 999.0 |
| 20260505181157 | 6 | 216 | 4.8 | 19.3 | 0.00 | 0.05 | 0.00 | 61 | 999.0 |
| 20260505181057 | 6 | 232 | 4.8 | 19.3 | 0.00 | 0.05 | 0.00 | 61 | 999.0 |
| 20260505180958 | 6 | 135 | 0.0 | 19.3 | 0.00 | 0.05 | 0.00 | 60 | 998.9 |
| 20260505180758 | 6 | 183 | 6.4 | 17.7 | 0.00 | 0.05 | 0.00 | 61 | 998.9 |
| 20260505180657 | 6 | 177 | 11.3 | 17.7 | 0.00 | 0.05 | 0.00 | 62 | 999.0 |
| 20260505180557 | 6 | 159 | 1.6 | 17.7 | 0.00 | 0.05 | 0.00 | 61 | 998.9 |
| 20260505180459 | 6 | 150 | 3.2 | 16.1 | 0.00 | 0.05 | 0.00 | 62 | 998.9 |
| 20260505180357 | 6 | 172 | 11.3 | 16.1 | 0.00 | 0.05 | 0.00 | 61 | 998.9 |
| 20260505180057 | 6 | 194 | 9.7 | 20.9 | 0.00 | 0.05 | 0.00 | 62 | 999.0 |
| 20260505180000 | 6 | 224 | 4.8 | 27.4 | 0.00 | 0.05 | 0.00 | 62 | 999.0 |
| 20260505175856 | 6 | 204 | 9.7 | 27.4 | 0.00 | 0.25 | 0.00 | 64 | 999.0 |
| 20260505175757 | 6 | 258 | 0.0 | 27.4 | 0.00 | 0.25 | 0.00 | 64 | 999.0 |
| 20260505175658 | 6 | 258 | 0.0 | 27.4 | 0.00 | 0.25 | 0.00 | 64 | 998.9 |
| 20260505175458 | 6 | 236 | 8.0 | 27.4 | 0.00 | 0.25 | 0.00 | 63 | 998.8 |
| 20260505175257 | 6 | 175 | 9.7 | 27.4 | 0.00 | 0.25 | 0.00 | 63 | 998.9 |
| 20260505175157 | 6 | 167 | 12.9 | 30.6 | 0.00 | 0.25 | 0.00 | 64 | 998.9 |
| 20260505175056 | 6 | 204 | 9.7 | 19.3 | 0.00 | 0.25 | 0.00 | 63 | 998.8 |
| 20260505174959 | 6 | 80 | 11.3 | 19.3 | 0.00 | 0.25 | 0.00 | 64 | 998.9 |
| 20260505174859 | 6 | 188 | 1.6 | 19.3 | 0.00 | 0.25 | 0.00 | 64 | 998.9 |
| 20260505174756 | 6 | 171 | 8.0 | 19.3 | 0.00 | 0.25 | 0.00 | 67 | 998.8 |
| 20260505174658 | 5 | 178 | 8.0 | 19.3 | 0.00 | 0.25 | 0.00 | 70 | 998.7 |
| 20260505174556 | 5 | 309 | 8.0 | 19.3 | 0.00 | 0.25 | 0.00 | 72 | 998.8 |
| 20260505174357 | 5 | 109 | 1.6 | 19.3 | 0.00 | 0.25 | 0.00 | 69 | 999.0 |
| 20260505174257 | 5 | 92 | 6.4 | 19.3 | 0.00 | 0.25 | 0.00 | 70 | 999.0 |
| 20260505174158 | 5 | 42 | 9.7 | 19.3 | 0.00 | 0.25 | 0.00 | 73 | 998.9 |
| 20260505174058 | 5 | 33 | 16.1 | 19.3 | 0.00 | 0.25 | 0.00 | 77 | 999.0 |
| 20260505173958 | 5 | 211 | 6.4 | 14.5 | 0.00 | 0.25 | 0.00 | 76 | 999.0 |
| 20260505173857 | 5 | 178 | 4.8 | 14.5 | 0.00 | 0.25 | 0.00 | 76 | 999.0 |
| 20260505173657 | 5 | 71 | 4.8 | 12.9 | 0.00 | 0.25 | 0.00 | 83 | 998.9 |
| 20260505173458 | 5 | 137 | 8.0 | 12.9 | 0.00 | 0.25 | 0.00 | 86 | 998.8 |
| 20260505173258 | 5 | 293 | 8.0 | 12.9 | 0.00 | 0.25 | 0.00 | 87 | 998.9 |
| 20260505173158 | 5 | 294 | 4.8 | 4.8 | 0.00 | 0.25 | 0.00 | 87 | 999.0 |
| 20260505172957 | 4 | 293 | 1.6 | 4.8 | 0.00 | 0.25 | 0.00 | 87 | 999.0 |
| 20260505172858 | 4 | 294 | 1.6 | 4.8 | 0.00 | 0.25 | 0.00 | 87 | 999.0 |
| 20260505172756 | 4 | 294 | 0.0 | 4.8 | 0.00 | 0.25 | 0.00 | 88 | 999.0 |
| 20260505172659 | 4 | 294 | 0.0 | 6.4 | 0.00 | 0.25 | 0.00 | 88 | 999.0 |
| 20260505172558 | 4 | 294 | 1.6 | 6.4 | 0.00 | 0.25 | 0.00 | 87 | 998.9 |
| 20260505172458 | 4 | 294 | 3.2 | 8.0 | 0.00 | 0.25 | 0.00 | 88 | 998.9 |
| 20260505172156 | 4 | 294 | 3.2 | 12.9 | 0.00 | 0.25 | 0.00 | 88 | 998.9 |
| 20260505172057 | 4 | 294 | 1.6 | 12.9 | 0.00 | 0.25 | 0.00 | 88 | 998.9 |
| 20260505172000 | 4 | 294 | 3.2 | 12.9 | 0.00 | 0.25 | 0.00 | 88 | 998.9 |
| 20260505171856 | 4 | 288 | 0.0 | 12.9 | 0.00 | 0.25 | 0.00 | 88 | 998.9 |
| 20260505171758 | 4 | 288 | 3.2 | 12.9 | 0.00 | 0.25 | 0.00 | 88 | 998.7 |
| 20260505171656 | 4 | 288 | 1.6 | 12.9 | 0.00 | 0.25 | 0.00 | 88 | 998.7 |
| 20260505171556 | 4 | 283 | 6.4 | 12.9 | 0.00 | 0.25 | 0.00 | 88 | 998.7 |
| 20260505171459 | 4 | 284 | 6.4 | 12.9 | 0.00 | 0.25 | 0.00 | 88 | 998.7 |
| 20260505171257 | 4 | 279 | 6.4 | 12.9 | 0.00 | 0.25 | 0.00 | 88 | 998.7 |
| 20260505171157 | 4 | 291 | 6.4 | 14.5 | 0.00 | 0.25 | 0.00 | 89 | 998.7 |
| 20260505171057 | 4 | 332 | 4.8 | 14.5 | 0.00 | 0.25 | 0.00 | 89 | 998.7 |
| 20260505170958 | 4 | 335 | 1.6 | 14.5 | 0.00 | 0.25 | 0.00 | 88 | 998.7 |
| 20260505170857 | 4 | 334 | 4.8 | 14.5 | 0.00 | 0.25 | 0.00 | 89 | 998.6 |
| 20260505170757 | 4 | 351 | 8.0 | 14.5 | 0.00 | 0.25 | 0.00 | 89 | 998.6 |
| 20260505170657 | 4 | 327 | 8.0 | 14.5 | 0.00 | 0.25 | 0.00 | 89 | 998.6 |
| 20260505170558 | 4 | 315 | 6.4 | 14.5 | 0.00 | 0.25 | 0.00 | 89 | 998.6 |
| 20260505170459 | 4 | 319 | 6.4 | 14.5 | 0.00 | 0.25 | 0.00 | 89 | 998.6 |
| 20260505170359 | 4 | 299 | 11.3 | 14.5 | 0.00 | 0.25 | 0.00 | 89 | 998.5 |
| 20260505170157 | 4 | 315 | 8.0 | 12.9 | 0.00 | 0.25 | 0.00 | 89 | 998.6 |
| 20260505170057 | 4 | 304 | 11.3 | 11.3 | 0.00 | 0.25 | 0.00 | 88 | 998.6 |
| 20260505165959 | 4 | 286 | 9.7 | 9.7 | 0.00 | 0.43 | 0.00 | 89 | 998.6 |
| 20260505165759 | 4 | 299 | 4.8 | 9.7 | 0.00 | 0.43 | 0.00 | 89 | 998.6 |
| 20260505165558 | 4 | 333 | 3.2 | 9.7 | 0.00 | 0.43 | 0.00 | 89 | 998.6 |
| 20260505165500 | 4 | 332 | 4.8 | 9.7 | 0.00 | 0.43 | 0.00 | 89 | 998.5 |
| 20260505165358 | 4 | 332 | 3.2 | 9.7 | 0.00 | 0.43 | 0.00 | 89 | 998.6 |
| 20260505165256 | 4 | 332 | 1.6 | 12.9 | 0.00 | 0.43 | 0.00 | 89 | 998.6 |
| 20260505165157 | 4 | 332 | 3.2 | 14.5 | 0.00 | 0.43 | 0.00 | 88 | 998.5 |
| 20260505165057 | 4 | 332 | 3.2 | 14.5 | 0.00 | 0.43 | 0.00 | 88 | 998.5 |
| 20260505164958 | 4 | 315 | 6.4 | 14.5 | 0.00 | 0.43 | 0.00 | 89 | 998.5 |
| 20260505164857 | 4 | 313 | 4.8 | 14.5 | 0.00 | 0.43 | 0.00 | 89 | 998.5 |
| 20260505164657 | 4 | 302 | 4.8 | 14.5 | 0.00 | 0.43 | 0.00 | 89 | 998.6 |
| 20260505164459 | 4 | 327 | 8.0 | 14.5 | 0.00 | 0.43 | 0.00 | 88 | 998.5 |
| 20260505164357 | 4 | 312 | 6.4 | 14.5 | 0.00 | 0.43 | 0.00 | 88 | 998.4 |
| 20260505164257 | 4 | 333 | 8.0 | 14.5 | 0.00 | 0.43 | 0.00 | 88 | 998.5 |
| 20260505163758 | 4 | 343 | 4.8 | 9.7 | 0.00 | 0.43 | 0.00 | 87 | 998.5 |
| 20260505163657 | 4 | 321 | 6.4 | 9.7 | 0.00 | 0.43 | 0.00 | 87 | 998.5 |
| 20260505163500 | 4 | 355 | 6.4 | 12.9 | 0.00 | 0.43 | 0.00 | 87 | 998.5 |
| 20260505163356 | 4 | 355 | 4.8 | 12.9 | 0.00 | 0.43 | 0.00 | 87 | 998.4 |
| 20260505163257 | 4 | 351 | 3.2 | 12.9 | 0.00 | 0.43 | 0.00 | 87 | 998.4 |
| 20260505163158 | 4 | 286 | 3.2 | 14.5 | 0.00 | 0.43 | 0.00 | 87 | 998.4 |
| 20260505163057 | 4 | 315 | 4.8 | 14.5 | 0.00 | 0.43 | 0.00 | 86 | 998.3 |
| 20260505162959 | 4 | 313 | 6.4 | 17.7 | 0.00 | 0.43 | 0.00 | 86 | 998.4 |
| 20260505162857 | 4 | 254 | 1.6 | 17.7 | 0.00 | 0.43 | 0.00 | 86 | 998.3 |
| 20260505162757 | 4 | 258 | 6.4 | 17.7 | 0.00 | 0.43 | 0.00 | 86 | 998.3 |
| 20260505162657 | 4 | 300 | 1.6 | 17.7 | 0.00 | 0.43 | 0.00 | 86 | 998.3 |
| 20260505162558 | 4 | 300 | 1.6 | 17.7 | 0.00 | 0.43 | 0.00 | 85 | 998.2 |
| 20260505162458 | 4 | 293 | 6.4 | 17.7 | 0.00 | 0.43 | 0.00 | 85 | 998.3 |
| 20260505162357 | 4 | 278 | 11.3 | 17.7 | 0.00 | 0.43 | 0.00 | 85 | 998.3 |
| 20260505162257 | 4 | 279 | 11.3 | 17.7 | 0.00 | 0.43 | 0.00 | 85 | 998.3 |
| 20260505162157 | 4 | 336 | 9.7 | 12.9 | 0.00 | 0.43 | 0.00 | 85 | 998.3 |
| 20260505162056 | 4 | 336 | 4.8 | 12.9 | 0.00 | 0.43 | 0.00 | 84 | 998.3 |
| 20260505162000 | 4 | 336 | 8.0 | 12.9 | 0.00 | 0.43 | 0.00 | 84 | 998.4 |
| 20260505161856 | 4 | 360 | 6.4 | 12.9 | 0.00 | 0.43 | 0.00 | 82 | 998.4 |
| 20260505161757 | 4 | 313 | 3.2 | 12.9 | 0.00 | 0.43 | 0.00 | 80 | 998.3 |
| 20260505161656 | 4 | 292 | 6.4 | 12.9 | 0.00 | 0.43 | 0.00 | 77 | 998.2 |
| 20260505161459 | 4 | 277 | 4.8 | 8.0 | 0.00 | 0.43 | 0.00 | 84 | 998.3 |
| 20260505161358 | 4 | 273 | 4.8 | 11.3 | 0.00 | 0.43 | 0.00 | 84 | 998.3 |
| 20260505161256 | 4 | 355 | 6.4 | 14.5 | 0.00 | 0.43 | 0.00 | 85 | 998.4 |
| 20260505161058 | 4 | 16 | 3.2 | 14.5 | 0.00 | 0.43 | 0.00 | 85 | 998.3 |
| 20260505160959 | 4 | 42 | 4.8 | 14.5 | 0.00 | 0.43 | 0.00 | 85 | 998.3 |
| 20260505160856 | 4 | 24 | 8.0 | 14.5 | 0.00 | 0.43 | 0.00 | 85 | 998.2 |
| 20260505160757 | 4 | 41 | 4.8 | 14.5 | 0.00 | 0.43 | 0.00 | 85 | 998.2 |
| 20260505160656 | 4 | 41 | 3.2 | 14.5 | 0.00 | 0.43 | 0.00 | 85 | 998.2 |
| 20260505160558 | 4 | 43 | 6.4 | 14.5 | 0.00 | 0.43 | 0.00 | 85 | 998.2 |
| 20260505160459 | 4 | 55 | 9.7 | 14.5 | 0.00 | 0.43 | 0.00 | 85 | 998.3 |
| 20260505160357 | 4 | 31 | 6.4 | 14.5 | 0.00 | 0.43 | 0.00 | 85 | 998.2 |
| 20260505160256 | 4 | 62 | 8.0 | 14.5 | 0.00 | 0.43 | 0.00 | 85 | 998.1 |
| 20260505153357 | 4 | 39 | 8.0 | 12.9 | 0.00 | 0.56 | 0.00 | 80 | 997.9 |
| 20260505153157 | 4 | 32 | 8.0 | 12.9 | 0.00 | 0.56 | 0.00 | 79 | 997.8 |
| 20260505153057 | 4 | 24 | 8.0 | 12.9 | 0.00 | 0.56 | 0.00 | 79 | 997.8 |
| 20260505152959 | 4 | 11 | 8.0 | 12.9 | 0.00 | 0.56 | 0.00 | 79 | 997.8 |
| 20260505152858 | 4 | 19 | 6.4 | 12.9 | 0.00 | 0.56 | 0.00 | 78 | 997.9 |
| 20260505152758 | 4 | 9 | 8.0 | 12.9 | 0.00 | 0.56 | 0.00 | 79 | 997.9 |
| 20260505152656 | 4 | 360 | 3.2 | 12.9 | 0.00 | 0.56 | 0.00 | 79 | 997.9 |
| 20260505152558 | 4 | 360 | 4.8 | 12.9 | 0.00 | 0.56 | 0.00 | 78 | 997.8 |
| 20260505152358 | 4 | 9 | 11.3 | 12.9 | 0.00 | 0.56 | 0.00 | 76 | 997.7 |
| 20260505152056 | 5 | 18 | 6.4 | 12.9 | 0.00 | 0.56 | 0.00 | 73 | 997.6 |
| 20260505151958 | 5 | 9 | 11.3 | 12.9 | 0.00 | 0.56 | 0.00 | 71 | 997.6 |
| 20260505151657 | 5 | 287 | 4.8 | 11.3 | 0.00 | 0.56 | 0.00 | 68 | 997.6 |
| 20260505151459 | 5 | 292 | 4.8 | 11.3 | 0.00 | 0.56 | 0.00 | 67 | 997.6 |
| 20260505151357 | 5 | 308 | 4.8 | 8.0 | 0.00 | 0.56 | 0.00 | 67 | 997.6 |
| 20260505151258 | 5 | 306 | 4.8 | 8.0 | 0.00 | 0.56 | 0.00 | 66 | 997.6 |
| 20260505151157 | 5 | 336 | 3.2 | 6.4 | 0.00 | 0.56 | 0.00 | 65 | 997.6 |
| 20260505150958 | 5 | 336 | 1.6 | 6.4 | 0.00 | 0.56 | 0.00 | 64 | 997.6 |
| 20260505150857 | 5 | 336 | 1.6 | 6.4 | 0.00 | 0.56 | 0.00 | 64 | 997.6 |
| 20260505150657 | 5 | 336 | 1.6 | 16.1 | 0.00 | 0.56 | 0.00 | 64 | 997.6 |
| 20260505150558 | 5 | 336 | 3.2 | 16.1 | 0.00 | 0.56 | 0.00 | 64 | 997.6 |
| 20260505150356 | 5 | 336 | 1.6 | 19.3 | 0.00 | 0.56 | 0.00 | 63 | 997.6 |
| 20260505150258 | 6 | 336 | 1.6 | 19.3 | 0.00 | 0.56 | 0.00 | 64 | 997.5 |
| 20260505140556 | 6 | 148 | 16.1 | 37.0 | 0.00 | 0.61 | 0.00 | 58 | 996.6 |
| 20260505140458 | 6 | 346 | 6.4 | 37.0 | 0.00 | 0.61 | 0.00 | 59 | 997.1 |
| 20260505140358 | 6 | 143 | 33.8 | 37.0 | 0.00 | 0.61 | 0.00 | 58 | 996.9 |
| 20260505140257 | 6 | 153 | 25.7 | 32.2 | 0.00 | 0.61 | 0.00 | 58 | 997.0 |
| 20260505130256 | 6 | 92 | 9.7 | 20.9 | 0.00 | 0.71 | 0.00 | 59 | 997.2 |
| 20260505130156 | 6 | 141 | 14.5 | 22.5 | 0.00 | 0.71 | 0.00 | 59 | 997.1 |
| 20260505124959 | 6 | 105 | 19.3 | 22.5 | 0.00 | 0.84 | 0.00 | 58 | 997.1 |
| 20260505124756 | 6 | 101 | 6.4 | 22.5 | 0.00 | 0.84 | 0.00 | 58 | 997.0 |
| 20260505124556 | 6 | 99 | 4.8 | 22.5 | 0.00 | 0.84 | 0.00 | 58 | 997.1 |
| 20260505124458 | 6 | 78 | 6.4 | 22.5 | 0.00 | 0.84 | 0.00 | 58 | 997.0 |
| 20260505124355 | 6 | 136 | 3.2 | 22.5 | 0.00 | 0.84 | 0.00 | 58 | 997.1 |
| 20260505124255 | 6 | 157 | 9.7 | 25.7 | 0.00 | 0.84 | 0.00 | 58 | 997.0 |
| 20260505124156 | 6 | 123 | 11.3 | 25.7 | 0.00 | 0.84 | 0.00 | 58 | 997.0 |
| 20260505124055 | 6 | 258 | 11.3 | 25.7 | 0.00 | 0.84 | 0.00 | 59 | 996.9 |
| 20260505123957 | 6 | 105 | 1.6 | 25.7 | 0.00 | 0.84 | 0.00 | 58 | 997.0 |
| 20260505123855 | 6 | 162 | 8.0 | 25.7 | 0.00 | 0.84 | 0.00 | 58 | 997.0 |
| 20260505123655 | 6 | 181 | 4.8 | 25.7 | 0.00 | 0.84 | 0.00 | 59 | 997.1 |
| 20260505123556 | 6 | 61 | 3.2 | 25.7 | 0.00 | 0.84 | 0.00 | 58 | 997.0 |
| 20260505123456 | 6 | 148 | 24.1 | 24.1 | 0.00 | 0.84 | 0.00 | 58 | 997.0 |
| 20260505123356 | 6 | 215 | 0.0 | 16.1 | 0.00 | 0.84 | 0.00 | 58 | 997.0 |
| 20260505123256 | 6 | 239 | 4.8 | 16.1 | 0.00 | 0.84 | 0.00 | 58 | 997.0 |
| 20260505123156 | 6 | 153 | 0.0 | 16.1 | 0.00 | 0.84 | 0.00 | 57 | 997.1 |
| 20260505123055 | 6 | 142 | 9.7 | 16.1 | 0.00 | 0.84 | 0.00 | 57 | 997.0 |
| 20260505122956 | 6 | 117 | 14.5 | 16.1 | 0.00 | 0.84 | 0.00 | 57 | 996.9 |
| 20260505122855 | 6 | 212 | 6.4 | 16.1 | 0.00 | 0.84 | 0.00 | 58 | 996.9 |
| 20260505122755 | 6 | 191 | 8.0 | 16.1 | 0.00 | 0.84 | 0.00 | 58 | 997.1 |
| 20260505122656 | 6 | 109 | 1.6 | 16.1 | 0.00 | 0.84 | 0.00 | 58 | 997.0 |
| 20260505122456 | 6 | 45 | 4.8 | 16.1 | 0.00 | 0.84 | 0.00 | 58 | 997.0 |
| 20260505122355 | 6 | 74 | 4.8 | 17.7 | 0.00 | 0.84 | 0.00 | 58 | 997.0 |
| 20260505122256 | 6 | 48 | 8.0 | 17.7 | 0.00 | 0.84 | 0.00 | 58 | 997.0 |
| 20260505122156 | 6 | 82 | 6.4 | 17.7 | 0.00 | 0.84 | 0.00 | 58 | 996.9 |
| 20260505122055 | 6 | 98 | 3.2 | 17.7 | 0.00 | 0.84 | 0.00 | 57 | 997.0 |
| 20260505121957 | 6 | 99 | 6.4 | 24.1 | 0.00 | 0.84 | 0.00 | 58 | 996.9 |
| 20260505121856 | 6 | 114 | 6.4 | 24.1 | 0.00 | 0.84 | 0.00 | 58 | 996.8 |
| 20260505121755 | 6 | 134 | 6.4 | 29.0 | 0.00 | 0.84 | 0.00 | 58 | 996.9 |
| 20260505121655 | 6 | 120 | 8.0 | 29.0 | 0.00 | 0.84 | 0.00 | 58 | 996.8 |
| 20260505121557 | 6 | 144 | 6.4 | 29.0 | 0.00 | 0.84 | 0.00 | 58 | 996.8 |
| 20260505121457 | 6 | 134 | 11.3 | 29.0 | 0.00 | 0.84 | 0.00 | 58 | 996.7 |
| 20260505121256 | 6 | 123 | 8.0 | 29.0 | 0.00 | 0.84 | 0.00 | 58 | 996.9 |
| 20260505121156 | 6 | 120 | 20.9 | 29.0 | 0.00 | 0.84 | 0.00 | 58 | 996.8 |
| 20260505121056 | 6 | 186 | 9.7 | 29.0 | 0.00 | 0.84 | 0.00 | 58 | 996.9 |
| 20260505120958 | 6 | 134 | 27.4 | 29.0 | 0.00 | 0.84 | 0.00 | 59 | 996.9 |
| 20260505120856 | 6 | 134 | 6.4 | 27.4 | 0.00 | 0.84 | 0.00 | 59 | 996.8 |
| 20260505120756 | 6 | 160 | 3.2 | 27.4 | 0.00 | 0.84 | 0.00 | 59 | 996.9 |
| 20260505120656 | 6 | 127 | 8.0 | 27.4 | 0.00 | 0.84 | 0.00 | 59 | 996.9 |
| 20260505120555 | 6 | 58 | 6.4 | 33.8 | 0.00 | 0.84 | 0.00 | 59 | 996.9 |
| 20260505120457 | 6 | 85 | 6.4 | 33.8 | 0.00 | 0.84 | 0.00 | 59 | 997.0 |
| 20260505120358 | 6 | 116 | 17.7 | 33.8 | 0.00 | 0.84 | 0.00 | 58 | 997.0 |
| 20260505120256 | 6 | 154 | 22.5 | 33.8 | 0.00 | 0.84 | 0.00 | 59 | 997.0 |
| 20260505120156 | 6 | 190 | 6.4 | 33.8 | 0.00 | 0.84 | 0.00 | 59 | 997.0 |
| 20260505115957 | 6 | 91 | 16.1 | 33.8 | 0.00 | 0.97 | 0.00 | 59 | 997.1 |
| 20260505115855 | 6 | 159 | 14.5 | 33.8 | 0.00 | 0.97 | 0.00 | 58 | 997.1 |
| 20260505115656 | 6 | 144 | 9.7 | 29.0 | 0.00 | 0.97 | 0.00 | 58 | 997.0 |
| 20260505115458 | 6 | 200 | 14.5 | 41.8 | 0.00 | 0.97 | 0.00 | 58 | 997.1 |
| 20260505115356 | 6 | 159 | 8.0 | 41.8 | 0.00 | 0.97 | 0.00 | 58 | 997.1 |
| 20260505115156 | 6 | 118 | 9.7 | 41.8 | 0.00 | 0.97 | 0.00 | 58 | 997.2 |
| 20260505114957 | 6 | 82 | 8.0 | 41.8 | 0.00 | 0.97 | 0.00 | 58 | 997.2 |
| 20260505114856 | 6 | 107 | 17.7 | 41.8 | 0.00 | 0.97 | 0.00 | 58 | 997.3 |
| 20260505114755 | 6 | 146 | 20.9 | 46.7 | 0.00 | 0.97 | 0.00 | 58 | 997.1 |
| 20260505114656 | 6 | 215 | 9.7 | 40.2 | 0.00 | 0.97 | 0.00 | 58 | 997.2 |
| 20260505114557 | 6 | 143 | 6.4 | 40.2 | 0.00 | 0.97 | 0.00 | 58 | 997.2 |
| 20260505114356 | 6 | 138 | 30.6 | 40.2 | 0.00 | 0.97 | 0.00 | 57 | 997.2 |
| 20260505114255 | 6 | 155 | 16.1 | 40.2 | 0.00 | 0.97 | 0.00 | 57 | 997.2 |
| 20260505114155 | 6 | 107 | 24.1 | 40.2 | 0.00 | 0.97 | 0.00 | 57 | 997.2 |
| 20260505114056 | 6 | 144 | 20.9 | 35.4 | 0.00 | 0.97 | 0.00 | 58 | 997.2 |
| 20260505113956 | 6 | 117 | 4.8 | 35.4 | 0.00 | 0.97 | 0.00 | 58 | 997.3 |
| 20260505113756 | 6 | 138 | 16.1 | 35.4 | 0.00 | 0.97 | 0.00 | 58 | 997.3 |
| 20260505113656 | 6 | 53 | 11.3 | 35.4 | 0.00 | 0.97 | 0.00 | 59 | 997.4 |
| 20260505113557 | 6 | 98 | 14.5 | 35.4 | 0.00 | 0.97 | 0.00 | 58 | 997.2 |
| 20260505113356 | 6 | 184 | 11.3 | 22.5 | 0.00 | 0.97 | 0.00 | 59 | 997.4 |
| 20260505113255 | 6 | 144 | 8.0 | 22.5 | 0.00 | 0.97 | 0.00 | 60 | 997.4 |
| 20260505113156 | 6 | 119 | 6.4 | 22.5 | 0.00 | 0.97 | 0.00 | 59 | 997.5 |
| 20260505112957 | 6 | 129 | 20.9 | 24.1 | 0.00 | 0.97 | 0.00 | 59 | 997.3 |
| 20260505112856 | 6 | 113 | 3.2 | 24.1 | 0.00 | 0.97 | 0.00 | 59 | 997.4 |
| 20260505112756 | 5 | 132 | 16.1 | 24.1 | 0.00 | 0.97 | 0.00 | 60 | 997.5 |
| 20260505112655 | 5 | 130 | 17.7 | 20.9 | 0.00 | 0.97 | 0.00 | 60 | 997.4 |
| 20260505112555 | 5 | 158 | 4.8 | 20.9 | 0.00 | 0.97 | 0.00 | 61 | 997.5 |
| 20260505112458 | 5 | 111 | 9.7 | 20.9 | 0.00 | 0.97 | 0.00 | 61 | 997.4 |
| 20260505112355 | 5 | 155 | 3.2 | 20.9 | 0.00 | 0.97 | 0.00 | 61 | 997.3 |
| 20260505112255 | 5 | 155 | 1.6 | 20.9 | 0.00 | 0.97 | 0.00 | 63 | 997.4 |
| 20260505112155 | 5 | 141 | 4.8 | 20.9 | 0.00 | 0.97 | 0.00 | 64 | 997.5 |
| 20260505112055 | 5 | 159 | 11.3 | 20.9 | 0.00 | 0.97 | 0.00 | 64 | 997.5 |
| 20260505111857 | 5 | 117 | 4.8 | 11.3 | 0.00 | 0.97 | 0.00 | 69 | 997.5 |
| 20260505111656 | 5 | 74 | 1.6 | 11.3 | 0.00 | 0.97 | 0.00 | 71 | 997.5 |
| 20260505111557 | 5 | 74 | 4.8 | 19.3 | 0.00 | 0.97 | 0.00 | 71 | 997.5 |
| 20260505111457 | 4 | 76 | 4.8 | 19.3 | 0.00 | 0.97 | 0.00 | 76 | 997.4 |
| 20260505111355 | 4 | 28 | 3.2 | 19.3 | 0.00 | 0.97 | 0.00 | 78 | 997.5 |
| 20260505111255 | 4 | 27 | 4.8 | 19.3 | 0.00 | 0.97 | 0.00 | 81 | 997.4 |
| 20260505111155 | 4 | 207 | 3.2 | 19.3 | 0.00 | 0.97 | 0.00 | 81 | 997.5 |
| 20260505111055 | 4 | 207 | 1.6 | 19.3 | 0.00 | 0.97 | 0.00 | 79 | 997.4 |
| 20260505110958 | 4 | 207 | 3.2 | 19.3 | 0.00 | 0.97 | 0.00 | 83 | 997.4 |
| 20260505110856 | 3 | 127 | 11.3 | 19.3 | 0.00 | 0.97 | 0.00 | 82 | 997.4 |
| 20260505110755 | 3 | 142 | 12.9 | 19.3 | 0.00 | 0.97 | 0.00 | 83 | 997.4 |
| 20260505110655 | 3 | 95 | 14.5 | 17.7 | 0.00 | 0.97 | 0.00 | 89 | 997.5 |
| 20260505110556 | 3 | 93 | 11.3 | 17.7 | 0.00 | 0.97 | 0.00 | 91 | 997.4 |
| 20260505110457 | 3 | 92 | 12.9 | 17.7 | 0.00 | 0.97 | 0.00 | 92 | 997.5 |
| 20260505110356 | 3 | 166 | 4.8 | 17.7 | 0.00 | 0.97 | 0.00 | 92 | 997.4 |
| 20260505110258 | 3 | 63 | 0.0 | 17.7 | 0.00 | 0.97 | 0.00 | 93 | 997.4 |
| 20260505110155 | 3 | 309 | 6.4 | 17.7 | 0.00 | 0.97 | 0.00 | 94 | 997.4 |
| 20260505102157 | 3 | 92 | 6.4 | 6.4 | 0.00 | 1.09 | 0.00 | 94 | 997.6 |
| 20260505102057 | 3 | 88 | 4.8 | 4.8 | 0.00 | 1.09 | 0.00 | 94 | 997.5 |
| 20260505101958 | 3 | 88 | 1.6 | 4.8 | 0.00 | 1.09 | 0.00 | 94 | 997.5 |
| 20260505101857 | 3 | 88 | 1.6 | 4.8 | 0.00 | 1.09 | 0.00 | 94 | 997.5 |
| 20260505101756 | 3 | 88 | 0.0 | 4.8 | 0.00 | 1.09 | 0.00 | 94 | 997.6 |
| 20260505101657 | 3 | 88 | 1.6 | 4.8 | 0.00 | 1.09 | 0.00 | 94 | 997.6 |
| 20260505101558 | 3 | 88 | 3.2 | 6.4 | 0.00 | 1.09 | 0.00 | 94 | 997.6 |
| 20260505101459 | 3 | 88 | 3.2 | 6.4 | 0.00 | 1.09 | 0.00 | 94 | 997.6 |
| 20260505101357 | 3 | 88 | 3.2 | 6.4 | 0.00 | 1.09 | 0.00 | 94 | 997.5 |
| 20260505101256 | 3 | 88 | 3.2 | 6.4 | 0.00 | 1.09 | 0.00 | 94 | 997.5 |
| 20260505101158 | 3 | 88 | 1.6 | 6.4 | 0.00 | 1.09 | 0.00 | 94 | 997.5 |
| 20260505101057 | 3 | 88 | 3.2 | 6.4 | 0.00 | 1.09 | 0.00 | 94 | 997.5 |
| 20260505100958 | 3 | 88 | 3.2 | 6.4 | 0.00 | 1.09 | 0.00 | 94 | 997.5 |
| 20260505100857 | 3 | 88 | 3.2 | 6.4 | 0.00 | 1.09 | 0.00 | 94 | 997.6 |
| 20260505100757 | 3 | 88 | 4.8 | 6.4 | 0.00 | 1.09 | 0.00 | 94 | 997.6 |
| 20260505100657 | 3 | 88 | 6.4 | 6.4 | 0.00 | 1.09 | 0.00 | 94 | 997.6 |
| 20260505100556 | 3 | 330 | 1.6 | 3.2 | 0.00 | 1.09 | 0.00 | 94 | 997.6 |
| 20260505100500 | 3 | 330 | 0.0 | 3.2 | 0.00 | 1.09 | 0.00 | 94 | 997.5 |
| 20260505100357 | 3 | 330 | 0.0 | 3.2 | 0.00 | 1.09 | 0.00 | 94 | 997.5 |
| 20260505100256 | 3 | 330 | 0.0 | 4.8 | 0.00 | 1.09 | 0.00 | 94 | 997.6 |
| 20260505100056 | 3 | 330 | 1.6 | 4.8 | 0.00 | 1.09 | 0.00 | 94 | 997.6 |
| 20260505095959 | 3 | 330 | 0.0 | 6.4 | 0.00 | 1.09 | 0.00 | 94 | 997.5 |
| 20260505095856 | 3 | 330 | 1.6 | 6.4 | 0.00 | 1.17 | 0.00 | 93 | 997.5 |
| 20260505095756 | 3 | 330 | 1.6 | 6.4 | 0.00 | 1.17 | 0.00 | 93 | 997.4 |
| 20260505095656 | 3 | 330 | 0.0 | 9.7 | 0.00 | 1.17 | 0.00 | 93 | 997.4 |
| 20260505095556 | 3 | 330 | 3.2 | 9.7 | 0.00 | 1.17 | 0.00 | 93 | 997.5 |
| 20260505095356 | 3 | 330 | 3.2 | 12.9 | 0.00 | 1.17 | 0.00 | 94 | 997.6 |
| 20260505095256 | 3 | 330 | 3.2 | 12.9 | 0.00 | 1.17 | 0.00 | 94 | 997.5 |
| 20260505095155 | 3 | 331 | 1.6 | 12.9 | 0.00 | 1.17 | 0.00 | 94 | 997.4 |
| 20260505095056 | 3 | 331 | 4.8 | 12.9 | 0.00 | 1.17 | 0.00 | 94 | 997.4 |
| 20260505094957 | 3 | 331 | 6.4 | 12.9 | 0.00 | 1.17 | 0.00 | 94 | 997.5 |
| 20260505094755 | 3 | 330 | 8.0 | 12.9 | 0.00 | 1.17 | 0.00 | 94 | 997.4 |
| 20260505094655 | 3 | 320 | 6.4 | 12.9 | 0.00 | 1.17 | 0.00 | 93 | 997.5 |
| 20260505094555 | 3 | 314 | 8.0 | 12.9 | 0.00 | 1.17 | 0.00 | 93 | 997.6 |
| 20260505094457 | 3 | 287 | 8.0 | 9.7 | 0.00 | 1.17 | 0.00 | 93 | 997.6 |
| 20260505094355 | 3 | 198 | 4.8 | 4.8 | 0.00 | 1.17 | 0.00 | 93 | 997.6 |
| 20260505094055 | 3 | 196 | 0.0 | 6.4 | 0.00 | 1.17 | 0.00 | 93 | 997.7 |
| 20260505093957 | 3 | 196 | 1.6 | 6.4 | 0.00 | 1.17 | 0.00 | 93 | 997.6 |
| 20260505093856 | 3 | 196 | 1.6 | 6.4 | 0.00 | 1.17 | 0.00 | 93 | 997.7 |
| 20260505093755 | 3 | 196 | 0.0 | 6.4 | 0.00 | 1.17 | 0.00 | 93 | 997.7 |
| 20260505093555 | 3 | 196 | 3.2 | 6.4 | 0.00 | 1.17 | 0.00 | 93 | 997.6 |
| 20260505093458 | 3 | 196 | 1.6 | 9.7 | 0.00 | 1.17 | 0.00 | 93 | 997.6 |
| 20260505093356 | 3 | 196 | 1.6 | 11.3 | 0.00 | 1.17 | 0.00 | 93 | 997.5 |
| 20260505093255 | 3 | 196 | 3.2 | 11.3 | 0.00 | 1.17 | 0.00 | 93 | 997.5 |
| 20260505093155 | 3 | 107 | 3.2 | 11.3 | 0.00 | 1.17 | 0.00 | 93 | 997.6 |
| 20260505093055 | 3 | 101 | 3.2 | 11.3 | 0.00 | 1.17 | 0.00 | 93 | 997.6 |
| 20260505092957 | 3 | 99 | 3.2 | 11.3 | 0.00 | 1.17 | 0.00 | 93 | 997.6 |
| 20260505092857 | 3 | 99 | 1.6 | 11.3 | 0.00 | 1.17 | 0.00 | 93 | 997.5 |
| 20260505092757 | 3 | 99 | 1.6 | 11.3 | 0.00 | 1.17 | 0.00 | 93 | 997.5 |
| 20260505092655 | 3 | 104 | 9.7 | 11.3 | 0.00 | 1.17 | 0.00 | 93 | 997.5 |
| 20260505092555 | 3 | 114 | 11.3 | 11.3 | 0.00 | 1.17 | 0.00 | 93 | 997.6 |
| 20260505092456 | 3 | 131 | 4.8 | 8.0 | 0.00 | 1.17 | 0.00 | 93 | 997.5 |
| 20260505092355 | 3 | 128 | 6.4 | 8.0 | 0.00 | 1.17 | 0.00 | 93 | 997.5 |
| 20260505092255 | 3 | 155 | 3.2 | 8.0 | 0.00 | 1.17 | 0.00 | 93 | 997.5 |
| 20260505092155 | 3 | 155 | 4.8 | 9.7 | 0.00 | 1.17 | 0.00 | 94 | 997.4 |
| 20260505092056 | 3 | 155 | 4.8 | 9.7 | 0.00 | 1.17 | 0.00 | 93 | 997.4 |
| 20260505091956 | 3 | 155 | 4.8 | 9.7 | 0.00 | 1.17 | 0.00 | 93 | 997.4 |
| 20260505091855 | 3 | 155 | 3.2 | 9.7 | 0.00 | 1.17 | 0.00 | 93 | 997.4 |
| 20260505091755 | 3 | 155 | 4.8 | 9.7 | 0.00 | 1.17 | 0.00 | 93 | 997.4 |
| 20260505091656 | 3 | 155 | 4.8 | 9.7 | 0.00 | 1.17 | 0.00 | 93 | 997.5 |
| 20260505091556 | 3 | 155 | 4.8 | 9.7 | 0.00 | 1.17 | 0.00 | 93 | 997.5 |
| 20260505091458 | 3 | 155 | 4.8 | 9.7 | 0.00 | 1.17 | 0.00 | 93 | 997.5 |
| 20260505091256 | 3 | 155 | 4.8 | 9.7 | 0.00 | 1.17 | 0.00 | 93 | 997.6 |
| 20260505091155 | 3 | 155 | 6.4 | 9.7 | 0.00 | 1.17 | 0.00 | 93 | 997.6 |
| 20260505091055 | 3 | 155 | 1.6 | 9.7 | 0.00 | 1.17 | 0.00 | 93 | 997.5 |
| 20260505090958 | 3 | 155 | 1.6 | 9.7 | 0.00 | 1.17 | 0.00 | 93 | 997.6 |
| 20260505090755 | 3 | 155 | 3.2 | 9.7 | 0.00 | 1.17 | 0.00 | 93 | 997.8 |
| 20260505090655 | 3 | 155 | 4.8 | 9.7 | 0.00 | 1.17 | 0.00 | 93 | 997.7 |
| 20260505090555 | 3 | 155 | 4.8 | 9.7 | 0.00 | 1.17 | 0.00 | 93 | 997.7 |
| 20260505090457 | 3 | 182 | 4.8 | 6.4 | 0.00 | 1.17 | 0.00 | 93 | 997.7 |
| 20260505090356 | 3 | 182 | 4.8 | 6.4 | 0.00 | 1.17 | 0.00 | 93 | 997.7 |
| 20260505090155 | 3 | 288 | 3.2 | 3.2 | 0.00 | 1.17 | 0.00 | 93 | 997.7 |
| 20260505090055 | 3 | 288 | 3.2 | 3.2 | 0.00 | 1.17 | 0.00 | 93 | 997.6 |
| 20260505090002 | 3 | 288 | 1.6 | 3.2 | 0.00 | 1.17 | 0.00 | 93 | 997.6 |
| 20260505085859 | 3 | 288 | 0.0 | 3.2 | 0.00 | 1.24 | 0.00 | 93 | 997.6 |
| 20260505085559 | 3 | 288 | 1.6 | 3.2 | 0.00 | 1.24 | 0.00 | 93 | 997.8 |
| 20260505085504 | 3 | 288 | 1.6 | 3.2 | 0.00 | 1.24 | 0.00 | 93 | 997.8 |
| 20260505085358 | 3 | 288 | 1.6 | 6.4 | 0.00 | 1.24 | 0.00 | 94 | 997.7 |
| 20260505085258 | 3 | 288 | 0.0 | 8.0 | 0.00 | 1.24 | 0.00 | 94 | 997.7 |
| 20260505085158 | 3 | 288 | 1.6 | 8.0 | 0.00 | 1.24 | 0.00 | 94 | 997.7 |
| 20260505085059 | 3 | 288 | 0.0 | 8.0 | 0.00 | 1.24 | 0.00 | 94 | 997.8 |
| 20260505085002 | 3 | 288 | 0.0 | 8.0 | 0.00 | 1.24 | 0.00 | 94 | 997.8 |
| 20260505084858 | 3 | 288 | 3.2 | 8.0 | 0.00 | 1.24 | 0.00 | 93 | 997.8 |
| 20260505084758 | 3 | 288 | 1.6 | 8.0 | 0.00 | 1.24 | 0.00 | 93 | 997.7 |
| 20260505084659 | 3 | 288 | 3.2 | 8.0 | 0.00 | 1.24 | 0.00 | 93 | 997.6 |
| 20260505084558 | 3 | 288 | 4.8 | 8.0 | 0.00 | 1.24 | 0.00 | 93 | 997.7 |
| 20260505084500 | 3 | 287 | 8.0 | 9.7 | 0.00 | 1.24 | 0.00 | 93 | 997.7 |
| 20260505084359 | 3 | 192 | 3.2 | 4.8 | 0.00 | 1.24 | 0.00 | 93 | 997.7 |
| 20260505084259 | 3 | 161 | 1.6 | 4.8 | 0.00 | 1.24 | 0.00 | 93 | 997.8 |
| 20260505084159 | 3 | 161 | 3.2 | 4.8 | 0.00 | 1.24 | 0.00 | 93 | 997.8 |
| 20260505084059 | 3 | 161 | 3.2 | 4.8 | 0.00 | 1.24 | 0.00 | 94 | 997.8 |
| 20260505083858 | 3 | 161 | 1.6 | 4.8 | 0.00 | 1.24 | 0.00 | 94 | 997.8 |
| 20260505083758 | 3 | 161 | 1.6 | 4.8 | 0.00 | 1.24 | 0.00 | 94 | 997.8 |
| 20260505083659 | 3 | 161 | 0.0 | 4.8 | 0.00 | 1.24 | 0.00 | 94 | 997.8 |
| 20260505083558 | 3 | 162 | 3.2 | 4.8 | 0.00 | 1.24 | 0.00 | 94 | 997.8 |
| 20260505083500 | 3 | 161 | 3.2 | 6.4 | 0.00 | 1.24 | 0.00 | 94 | 997.8 |
| 20260505083259 | 3 | 161 | 6.4 | 6.4 | 0.00 | 1.24 | 0.00 | 94 | 997.8 |
| 20260505083159 | 3 | 161 | 3.2 | 6.4 | 0.00 | 1.24 | 0.00 | 94 | 997.8 |
| 20260505083058 | 3 | 161 | 3.2 | 6.4 | 0.00 | 1.24 | 0.00 | 94 | 997.8 |
| 20260505083003 | 3 | 161 | 6.4 | 6.4 | 0.00 | 1.24 | 0.00 | 94 | 997.8 |
| 20260505082658 | 3 | 162 | 0.0 | 4.8 | 0.00 | 1.24 | 0.00 | 94 | 997.9 |
| 20260505082558 | 3 | 162 | 1.6 | 4.8 | 0.00 | 1.24 | 0.00 | 94 | 997.9 |
| 20260505082504 | 3 | 162 | 3.2 | 4.8 | 0.00 | 1.24 | 0.00 | 94 | 998.0 |
| 20260505082358 | 3 | 162 | 1.6 | 3.2 | 0.00 | 1.24 | 0.00 | 94 | 997.9 |
| 20260505082159 | 3 | 162 | 0.0 | 3.2 | 0.00 | 1.24 | 0.00 | 94 | 997.9 |
| 20260505082058 | 3 | 162 | 0.0 | 3.2 | 0.00 | 1.24 | 0.00 | 94 | 997.9 |
| 20260505082000 | 3 | 162 | 1.6 | 3.2 | 0.00 | 1.24 | 0.00 | 94 | 997.9 |
| 20260505081759 | 3 | 162 | 1.6 | 4.8 | 0.00 | 1.24 | 0.00 | 94 | 997.9 |
| 20260505081659 | 3 | 162 | 0.0 | 4.8 | 0.00 | 1.24 | 0.00 | 94 | 997.9 |
| 20260505081500 | 3 | 162 | 0.0 | 4.8 | 0.00 | 1.24 | 0.00 | 94 | 997.9 |
| 20260505081359 | 3 | 162 | 1.6 | 4.8 | 0.00 | 1.24 | 0.00 | 94 | 997.9 |
| 20260505081259 | 3 | 162 | 1.6 | 4.8 | 0.00 | 1.24 | 0.00 | 94 | 997.9 |
| 20260505081158 | 3 | 162 | 0.0 | 4.8 | 0.00 | 1.24 | 0.00 | 94 | 997.9 |
| 20260505081100 | 3 | 162 | 3.2 | 6.4 | 0.00 | 1.24 | 0.00 | 94 | 997.9 |
| 20260505081005 | 3 | 162 | 3.2 | 6.4 | 0.00 | 1.24 | 0.00 | 94 | 997.9 |
| 20260505080859 | 3 | 162 | 1.6 | 9.7 | 0.00 | 1.24 | 0.00 | 94 | 997.9 |
| 20260505080759 | 3 | 162 | 0.0 | 9.7 | 0.00 | 1.24 | 0.00 | 94 | 997.9 |
| 20260505080500 | 3 | 162 | 1.6 | 9.7 | 0.00 | 1.24 | 0.00 | 94 | 997.9 |
| 20260505080359 | 3 | 162 | 0.0 | 9.7 | 0.00 | 1.24 | 0.00 | 94 | 998.0 |
| 20260505080158 | 3 | 162 | 0.0 | 9.7 | 0.00 | 1.24 | 0.00 | 94 | 998.0 |
| 20260505080058 | 3 | 162 | 3.2 | 9.7 | 0.00 | 1.24 | 0.00 | 94 | 998.2 |
| 20260505075859 | 3 | 90 | 4.8 | 6.4 | 0.00 | 1.37 | 1.24 | 94 | 998.2 |
| 20260505075759 | 3 | 44 | 1.6 | 9.7 | 0.00 | 1.37 | 1.24 | 94 | 998.1 |
| 20260505075658 | 3 | 44 | 0.0 | 9.7 | 0.00 | 1.37 | 1.24 | 94 | 998.1 |
| 20260505075558 | 3 | 44 | 1.6 | 9.7 | 0.00 | 1.37 | 1.24 | 94 | 998.1 |
| 20260505075504 | 3 | 59 | 4.8 | 9.7 | 0.00 | 1.37 | 1.24 | 94 | 998.1 |
| 20260505075359 | 3 | 34 | 1.6 | 9.7 | 0.00 | 1.37 | 1.24 | 94 | 998.1 |
| 20260505075259 | 3 | 34 | 0.0 | 9.7 | 0.00 | 1.37 | 1.24 | 94 | 998.1 |
| 20260505075159 | 3 | 34 | 4.8 | 9.7 | 0.00 | 1.37 | 1.24 | 94 | 998.2 |
| 20260505075058 | 3 | 13 | 4.8 | 9.7 | 0.00 | 1.37 | 1.24 | 94 | 998.1 |
| 20260505075000 | 3 | 360 | 6.4 | 9.7 | 0.00 | 1.37 | 1.24 | 94 | 998.0 |
| 20260505074858 | 3 | 327 | 6.4 | 8.0 | 0.00 | 1.37 | 1.24 | 94 | 998.2 |
| 20260505074758 | 3 | 323 | 3.2 | 6.4 | 0.00 | 1.37 | 1.24 | 94 | 998.2 |
| 20260505074700 | 3 | 323 | 1.6 | 6.4 | 0.00 | 1.37 | 1.24 | 94 | 998.1 |
| 20260505074558 | 3 | 323 | 3.2 | 6.4 | 0.00 | 1.37 | 1.24 | 94 | 998.1 |
| 20260505074501 | 3 | 323 | 3.2 | 6.4 | 0.00 | 1.37 | 1.24 | 94 | 998.2 |
| 20260505074358 | 3 | 346 | 4.8 | 8.0 | 0.00 | 1.37 | 1.24 | 94 | 998.1 |
| 20260505074259 | 3 | 346 | 0.0 | 8.0 | 0.00 | 1.37 | 1.24 | 94 | 998.2 |
| 20260505074158 | 3 | 346 | 0.0 | 11.3 | 0.00 | 1.37 | 1.24 | 94 | 998.2 |
| 20260505074059 | 3 | 346 | 0.0 | 11.3 | 0.00 | 1.37 | 1.24 | 94 | 998.2 |
| 20260505073959 | 3 | 346 | 1.6 | 11.3 | 0.00 | 1.37 | 1.24 | 94 | 998.2 |
| 20260505073759 | 3 | 324 | 3.2 | 11.3 | 0.00 | 1.37 | 1.24 | 94 | 998.1 |
| 20260505073658 | 3 | 314 | 4.8 | 11.3 | 0.00 | 1.37 | 1.24 | 94 | 998.0 |
| 20260505073558 | 3 | 316 | 6.4 | 11.3 | 0.00 | 1.37 | 1.24 | 94 | 998.0 |
| 20260505073359 | 3 | 292 | 6.4 | 11.3 | 0.00 | 1.37 | 1.24 | 94 | 997.9 |
| 20260505073259 | 3 | 309 | 4.8 | 8.0 | 0.00 | 1.37 | 1.24 | 94 | 998.0 |
| 20260505073158 | 3 | 339 | 8.0 | 8.0 | 0.00 | 1.37 | 1.24 | 94 | 998.1 |
| 20260505073059 | 3 | 350 | 6.4 | 8.0 | 0.00 | 1.37 | 1.24 | 94 | 998.1 |
| 20260505073000 | 3 | 322 | 4.8 | 8.0 | 0.00 | 1.37 | 1.24 | 94 | 998.1 |
| 20260505072859 | 3 | 302 | 3.2 | 8.0 | 0.00 | 1.37 | 1.24 | 94 | 998.0 |
| 20260505072800 | 3 | 336 | 4.8 | 9.7 | 0.00 | 1.37 | 1.24 | 94 | 997.9 |
| 20260505072658 | 3 | 265 | 4.8 | 9.7 | 0.00 | 1.37 | 1.24 | 94 | 998.0 |
| 20260505072358 | 3 | 275 | 1.6 | 9.7 | 0.00 | 1.37 | 1.24 | 94 | 998.1 |
| 20260505072259 | 3 | 254 | 4.8 | 8.0 | 0.00 | 1.37 | 1.24 | 94 | 998.1 |
| 20260505072159 | 3 | 252 | 3.2 | 8.0 | 0.00 | 1.37 | 1.24 | 94 | 998.2 |
| 20260505072059 | 3 | 252 | 3.2 | 8.0 | 0.00 | 1.37 | 1.24 | 94 | 998.1 |
| 20260505072001 | 3 | 252 | 4.8 | 8.0 | 0.00 | 1.37 | 1.24 | 94 | 998.1 |
| 20260505071859 | 3 | 253 | 4.8 | 8.0 | 0.00 | 1.37 | 1.24 | 94 | 998.1 |
| 20260505071758 | 3 | 252 | 8.0 | 8.0 | 0.00 | 1.37 | 1.24 | 94 | 998.2 |
| 20260505071559 | 3 | 223 | 6.4 | 11.3 | 0.00 | 1.37 | 1.24 | 94 | 998.2 |
| 20260505071500 | 3 | 252 | 3.2 | 11.3 | 0.00 | 1.37 | 1.24 | 94 | 998.3 |
| 20260505071359 | 3 | 252 | 3.2 | 11.3 | 0.00 | 1.37 | 1.24 | 93 | 998.2 |
| 20260505071058 | 3 | 244 | 4.8 | 12.9 | 0.00 | 1.37 | 1.24 | 94 | 998.3 |
| 20260505071000 | 3 | 244 | 1.6 | 12.9 | 0.00 | 1.37 | 1.24 | 94 | 998.2 |
| 20260505070859 | 3 | 248 | 4.8 | 12.9 | 0.00 | 1.37 | 1.24 | 94 | 998.2 |
| 20260505070759 | 3 | 250 | 4.8 | 12.9 | 0.00 | 1.37 | 1.24 | 94 | 998.2 |
| 20260505070658 | 3 | 249 | 4.8 | 12.9 | 0.00 | 1.37 | 1.24 | 94 | 998.3 |
| 20260505070558 | 3 | 256 | 3.2 | 12.9 | 0.00 | 1.37 | 1.24 | 94 | 998.3 |
| 20260505070501 | 3 | 238 | 4.8 | 12.9 | 0.00 | 1.37 | 1.24 | 94 | 998.3 |
| 20260505070358 | 3 | 196 | 3.2 | 12.9 | 0.00 | 1.37 | 1.24 | 94 | 998.2 |
| 20260505070258 | 3 | 195 | 9.7 | 14.5 | 0.00 | 1.37 | 1.24 | 94 | 998.3 |
| 20260505070158 | 3 | 237 | 4.8 | 16.1 | 0.00 | 1.37 | 1.24 | 94 | 998.2 |
| 20260505070058 | 3 | 235 | 4.8 | 16.1 | 0.00 | 1.37 | 1.24 | 94 | 998.3 |
| 20260505070001 | 3 | 157 | 1.6 | 16.1 | 0.00 | 1.47 | 1.24 | 94 | 998.3 |
| 20260505065859 | 3 | 157 | 4.8 | 16.1 | 0.00 | 1.47 | 1.24 | 94 | 998.3 |
| 20260505065658 | 3 | 322 | 1.6 | 16.1 | 0.00 | 1.47 | 1.24 | 94 | 998.1 |
| 20260505065505 | 3 | 303 | 6.4 | 16.1 | 0.00 | 1.47 | 1.24 | 94 | 998.2 |
| 20260505065358 | 3 | 325 | 16.1 | 16.1 | 0.00 | 1.47 | 1.24 | 93 | 998.2 |
| 20260505065258 | 3 | 317 | 6.4 | 8.0 | 0.00 | 1.47 | 1.24 | 93 | 998.3 |
| 20260505065158 | 3 | 265 | 1.6 | 6.4 | 0.00 | 1.47 | 1.24 | 93 | 998.2 |
| 20260505065059 | 3 | 265 | 3.2 | 6.4 | 0.00 | 1.47 | 1.24 | 93 | 998.1 |
| 20260505064859 | 3 | 278 | 4.8 | 6.4 | 0.00 | 1.47 | 1.24 | 93 | 998.0 |
| 20260505064759 | 3 | 278 | 4.8 | 6.4 | 0.00 | 1.47 | 1.24 | 93 | 998.1 |
| 20260505064659 | 3 | 278 | 3.2 | 6.4 | 0.00 | 1.47 | 1.24 | 93 | 998.1 |
| 20260505064559 | 3 | 278 | 1.6 | 6.4 | 0.00 | 1.47 | 1.24 | 93 | 998.1 |
| 20260505064500 | 3 | 278 | 4.8 | 6.4 | 0.00 | 1.47 | 1.24 | 93 | 998.2 |
| 20260505064359 | 3 | 303 | 4.8 | 8.0 | 0.00 | 1.47 | 1.24 | 93 | 998.2 |
| 20260505064259 | 3 | 355 | 6.4 | 8.0 | 0.00 | 1.47 | 1.24 | 93 | 998.3 |
| 20260505064159 | 3 | 350 | 6.4 | 9.7 | 0.00 | 1.47 | 1.24 | 93 | 998.2 |
| 20260505064100 | 3 | 295 | 3.2 | 9.7 | 0.00 | 1.47 | 1.24 | 93 | 998.3 |
| 20260505064000 | 3 | 295 | 1.6 | 9.7 | 0.00 | 1.47 | 1.24 | 93 | 998.3 |
| 20260505063758 | 3 | 295 | 1.6 | 9.7 | 0.00 | 1.47 | 1.24 | 93 | 998.2 |
| 20260505063658 | 3 | 295 | 6.4 | 9.7 | 0.00 | 1.47 | 1.24 | 93 | 998.1 |
| 20260505063558 | 3 | 296 | 4.8 | 11.3 | 0.00 | 1.47 | 1.24 | 93 | 998.2 |
| 20260505063300 | 3 | 325 | 9.7 | 17.7 | 0.00 | 1.47 | 1.24 | 93 | 998.2 |
| 20260505063158 | 3 | 295 | 3.2 | 17.7 | 0.00 | 1.47 | 1.24 | 92 | 998.2 |
| 20260505063003 | 3 | 320 | 6.4 | 17.7 | 0.00 | 1.47 | 1.24 | 92 | 998.2 |
| 20260505062900 | 3 | 43 | 4.8 | 17.7 | 0.00 | 1.47 | 1.24 | 92 | 998.3 |
| 20260505062800 | 4 | 53 | 9.7 | 17.7 | 0.00 | 1.47 | 1.24 | 92 | 998.3 |
| 20260505062658 | 4 | 12 | 8.0 | 17.7 | 0.00 | 1.47 | 1.24 | 92 | 998.0 |
| 20260505062600 | 4 | 296 | 6.4 | 17.7 | 0.00 | 1.47 | 1.24 | 92 | 998.0 |
| 20260505062502 | 4 | 293 | 12.9 | 14.5 | 0.00 | 1.47 | 1.24 | 92 | 998.1 |
| 20260505062359 | 4 | 292 | 8.0 | 11.3 | 0.00 | 1.47 | 1.24 | 92 | 998.2 |
| 20260505062159 | 4 | 302 | 3.2 | 11.3 | 0.00 | 1.47 | 1.24 | 91 | 998.2 |
| 20260505062059 | 4 | 302 | 4.8 | 11.3 | 0.00 | 1.47 | 1.24 | 91 | 998.2 |
| 20260505062004 | 4 | 302 | 4.8 | 11.3 | 0.00 | 1.47 | 1.24 | 91 | 998.3 |
| 20260505061900 | 4 | 299 | 0.0 | 11.3 | 0.00 | 1.47 | 1.24 | 91 | 998.2 |
| 20260505061659 | 4 | 306 | 4.8 | 11.3 | 0.00 | 1.47 | 1.24 | 91 | 998.1 |
| 20260505061559 | 4 | 299 | 4.8 | 11.3 | 0.00 | 1.47 | 1.24 | 90 | 998.2 |
| 20260505061504 | 4 | 290 | 8.0 | 11.3 | 0.00 | 1.47 | 1.24 | 91 | 998.2 |
| 20260505061358 | 4 | 234 | 4.8 | 8.0 | 0.00 | 1.47 | 1.24 | 91 | 998.2 |
| 20260505061259 | 4 | 233 | 1.6 | 8.0 | 0.00 | 1.47 | 1.24 | 90 | 998.2 |
| 20260505061159 | 4 | 233 | 3.2 | 8.0 | 0.00 | 1.47 | 1.24 | 90 | 998.2 |
| 20260505061059 | 4 | 233 | 1.6 | 8.0 | 0.00 | 1.47 | 1.24 | 90 | 998.2 |
| 20260505061000 | 4 | 275 | 4.8 | 8.0 | 0.00 | 1.47 | 1.24 | 90 | 998.1 |
| 20260505060859 | 4 | 344 | 4.8 | 8.0 | 0.00 | 1.47 | 1.24 | 90 | 998.1 |
| 20260505060759 | 4 | 348 | 1.6 | 8.0 | 0.00 | 1.47 | 1.24 | 90 | 998.1 |
| 20260505060659 | 4 | 349 | 1.6 | 8.0 | 0.00 | 1.47 | 1.24 | 91 | 998.0 |
| 20260505060400 | 4 | 349 | 1.6 | 8.0 | 0.00 | 1.47 | 1.24 | 91 | 998.3 |
| 20260505060259 | 4 | 42 | 4.8 | 6.4 | 0.00 | 1.47 | 1.24 | 91 | 998.5 |
| 20260505060158 | 4 | 55 | 4.8 | 4.8 | 0.00 | 1.47 | 1.24 | 91 | 998.4 |
| 20260505060058 | 4 | 55 | 0.0 | 4.8 | 0.00 | 1.47 | 1.24 | 91 | 998.3 |
| 20260505060004 | 4 | 55 | 0.0 | 6.4 | 0.00 | 1.47 | 1.24 | 91 | 998.3 |
| 20260505055859 | 4 | 55 | 1.6 | 11.3 | 0.00 | 1.57 | 1.24 | 91 | 998.4 |
| 20260505055758 | 4 | 281 | 3.2 | 11.3 | 0.00 | 1.57 | 1.24 | 91 | 998.3 |
| 20260505055658 | 4 | 280 | 3.2 | 11.3 | 0.00 | 1.57 | 1.24 | 91 | 998.3 |
| 20260505055505 | 4 | 277 | 4.8 | 11.3 | 0.00 | 1.57 | 1.24 | 90 | 998.4 |
| 20260505055258 | 5 | 271 | 1.6 | 11.3 | 0.00 | 1.57 | 1.24 | 90 | 998.4 |
| 20260505055158 | 5 | 270 | 4.8 | 11.3 | 0.00 | 1.57 | 1.24 | 89 | 998.3 |
| 20260505055059 | 5 | 269 | 6.4 | 11.3 | 0.00 | 1.57 | 1.24 | 89 | 998.3 |
| 20260505055004 | 5 | 268 | 11.3 | 11.3 | 0.00 | 1.57 | 1.24 | 89 | 998.4 |
| 20260505054859 | 5 | 301 | 3.2 | 14.5 | 0.00 | 1.57 | 1.24 | 89 | 998.5 |
| 20260505054758 | 5 | 301 | 1.6 | 19.3 | 0.00 | 1.57 | 1.24 | 88 | 998.4 |
| 20260505054659 | 5 | 301 | 3.2 | 19.3 | 0.00 | 1.57 | 1.24 | 88 | 998.4 |
| 20260505054559 | 5 | 309 | 3.2 | 19.3 | 0.00 | 1.57 | 1.24 | 88 | 998.4 |
| 20260505054501 | 5 | 295 | 3.2 | 19.3 | 0.00 | 1.57 | 1.24 | 88 | 998.4 |
| 20260505054359 | 5 | 296 | 3.2 | 19.3 | 0.00 | 1.57 | 1.24 | 87 | 998.4 |
| 20260505054258 | 5 | 298 | 4.8 | 19.3 | 0.00 | 1.57 | 1.24 | 87 | 998.4 |
| 20260505054200 | 5 | 313 | 1.6 | 19.3 | 0.00 | 1.57 | 1.24 | 87 | 998.4 |
| 20260505054059 | 5 | 309 | 3.2 | 19.3 | 0.00 | 1.57 | 1.24 | 86 | 998.3 |
| 20260505054005 | 5 | 253 | 14.5 | 19.3 | 0.00 | 1.57 | 1.24 | 86 | 998.5 |
| 20260505053859 | 5 | 314 | 6.4 | 17.7 | 0.00 | 1.57 | 1.24 | 86 | 998.7 |
| 20260505053658 | 5 | 112 | 12.9 | 14.5 | 0.00 | 1.57 | 1.24 | 85 | 998.5 |
| 20260505053559 | 5 | 120 | 8.0 | 12.9 | 0.00 | 1.57 | 1.24 | 85 | 998.4 |
| 20260505053459 | 5 | 146 | 4.8 | 12.9 | 0.00 | 1.57 | 1.24 | 84 | 998.3 |
| 20260505053359 | 5 | 209 | 3.2 | 12.9 | 0.00 | 1.57 | 1.24 | 84 | 998.2 |
| 20260505053300 | 6 | 304 | 3.2 | 12.9 | 0.00 | 1.57 | 1.24 | 83 | 998.2 |
| 20260505053159 | 6 | 294 | 4.8 | 8.0 | 0.00 | 1.57 | 1.24 | 83 | 998.2 |
| 20260505053001 | 6 | 294 | 3.2 | 9.7 | 0.00 | 1.57 | 1.24 | 82 | 998.3 |
| 20260505052759 | 6 | 282 | 6.4 | 9.7 | 0.00 | 1.57 | 1.24 | 80 | 998.3 |
| 20260505052659 | 6 | 282 | 9.7 | 20.9 | 0.00 | 1.57 | 1.24 | 80 | 998.5 |
| 20260505052501 | 6 | 306 | 1.6 | 20.9 | 0.00 | 1.57 | 1.24 | 79 | 998.5 |
| 20260505052359 | 6 | 306 | 3.2 | 20.9 | 0.00 | 1.57 | 1.24 | 78 | 998.3 |
| 20260505052300 | 6 | 306 | 4.8 | 20.9 | 0.00 | 1.57 | 1.24 | 75 | 998.3 |
| 20260505052058 | 6 | 138 | 1.6 | 20.9 | 0.00 | 1.57 | 1.24 | 68 | 998.3 |
| 20260505052001 | 6 | 147 | 3.2 | 20.9 | 0.00 | 1.57 | 1.24 | 69 | 998.3 |
| 20260505051900 | 6 | 160 | 8.0 | 20.9 | 0.00 | 1.57 | 1.24 | 71 | 998.4 |
| 20260505051758 | 6 | 139 | 16.1 | 16.1 | 0.00 | 1.57 | 1.24 | 77 | 998.4 |
| 20260505051658 | 6 | 34 | 1.6 | 8.0 | 0.00 | 1.57 | 1.24 | 80 | 998.4 |
| 20260505051505 | 6 | 34 | 1.6 | 8.0 | 0.00 | 1.57 | 1.24 | 80 | 998.3 |
| 20260505051358 | 6 | 34 | 0.0 | 8.0 | 0.00 | 1.57 | 1.24 | 79 | 998.4 |
| 20260505051300 | 6 | 34 | 1.6 | 8.0 | 0.00 | 1.57 | 1.24 | 80 | 998.4 |
| 20260505051100 | 6 | 339 | 0.0 | 6.4 | 0.00 | 1.57 | 1.24 | 82 | 998.5 |
| 20260505050858 | 6 | 339 | 0.0 | 6.4 | 0.00 | 1.57 | 1.24 | 82 | 998.6 |
| 20260505050758 | 6 | 339 | 3.2 | 8.0 | 0.00 | 1.57 | 1.24 | 83 | 998.5 |
| 20260505050659 | 6 | 332 | 3.2 | 9.7 | 0.00 | 1.57 | 1.24 | 82 | 998.5 |
| 20260505050504 | 6 | 254 | 4.8 | 9.7 | 0.00 | 1.57 | 1.24 | 81 | 998.6 |
| 20260505050359 | 6 | 248 | 4.8 | 9.7 | 0.00 | 1.57 | 1.24 | 81 | 998.7 |
| 20260505050258 | 6 | 140 | 3.2 | 9.7 | 0.00 | 1.57 | 1.24 | 80 | 998.7 |
| 20260505050159 | 6 | 51 | 0.0 | 9.7 | 0.00 | 1.57 | 1.24 | 79 | 998.6 |
| 20260505041658 | 8 | 12 | 14.5 | 22.5 | 0.00 | 1.63 | 1.24 | 59 | 999.2 |
| 20260505041558 | 8 | 84 | 1.6 | 22.5 | 0.00 | 1.63 | 1.24 | 58 | 999.2 |
| 20260505041500 | 8 | 128 | 8.0 | 22.5 | 0.00 | 1.63 | 1.24 | 58 | 999.2 |
| 20260505041358 | 8 | 117 | 11.3 | 22.5 | 0.00 | 1.63 | 1.24 | 58 | 999.3 |
| 20260505041258 | 8 | 115 | 11.3 | 22.5 | 0.00 | 1.63 | 1.24 | 59 | 999.3 |
| 20260505041158 | 8 | 78 | 8.0 | 22.5 | 0.00 | 1.63 | 1.24 | 58 | 999.3 |
| 20260505041059 | 8 | 61 | 9.7 | 22.5 | 0.00 | 1.63 | 1.24 | 58 | 999.3 |
| 20260505041000 | 8 | 97 | 16.1 | 22.5 | 0.00 | 1.63 | 1.24 | 58 | 999.3 |
| 20260505040758 | 8 | 142 | 14.5 | 19.3 | 0.00 | 1.63 | 1.24 | 59 | 999.3 |
| 20260505040659 | 8 | 165 | 8.0 | 19.3 | 0.00 | 1.63 | 1.24 | 59 | 999.3 |
| 20260505040559 | 8 | 170 | 12.9 | 20.9 | 0.00 | 1.63 | 1.24 | 59 | 999.4 |
| 20260505040500 | 8 | 150 | 12.9 | 20.9 | 0.00 | 1.63 | 1.24 | 59 | 999.4 |
| 20260505040359 | 8 | 163 | 8.0 | 17.7 | 0.00 | 1.63 | 1.24 | 59 | 999.3 |
| 20260505040259 | 9 | 136 | 3.2 | 17.7 | 0.00 | 1.63 | 1.24 | 59 | 999.4 |
| 20260505040158 | 9 | 59 | 9.7 | 17.7 | 0.00 | 1.63 | 1.24 | 59 | 999.4 |
| 20260505040058 | 9 | 65 | 9.7 | 17.7 | 0.00 | 1.63 | 1.24 | 58 | 999.4 |
| 20260505035859 | 9 | 178 | 6.4 | 22.5 | 0.00 | 1.70 | 1.24 | 59 | 999.5 |
| 20260505035758 | 9 | 136 | 8.0 | 22.5 | 0.00 | 1.70 | 1.24 | 59 | 999.5 |
| 20260505035700 | 9 | 124 | 11.3 | 22.5 | 0.00 | 1.70 | 1.24 | 59 | 999.5 |
| 20260505035558 | 9 | 87 | 4.8 | 22.5 | 0.00 | 1.70 | 1.24 | 59 | 999.5 |
| 20260505035505 | 9 | 130 | 8.0 | 22.5 | 0.00 | 1.70 | 1.24 | 59 | 999.6 |
| 20260505035258 | 9 | 93 | 11.3 | 22.5 | 0.00 | 1.70 | 1.24 | 58 | 999.5 |
| 20260505035159 | 9 | 117 | 17.7 | 22.5 | 0.00 | 1.70 | 1.24 | 58 | 999.6 |
| 20260505035100 | 9 | 91 | 1.6 | 22.5 | 0.00 | 1.70 | 1.24 | 59 | 999.6 |
| 20260505035004 | 9 | 92 | 6.4 | 22.5 | 0.00 | 1.70 | 1.24 | 58 | 999.6 |
| 20260505034858 | 9 | 54 | 16.1 | 29.0 | 0.00 | 1.70 | 1.24 | 58 | 999.6 |
| 20260505034800 | 9 | 94 | 16.1 | 29.0 | 0.00 | 1.70 | 1.24 | 59 | 999.7 |
| 20260505034659 | 9 | 172 | 20.9 | 29.0 | 0.00 | 1.70 | 1.24 | 59 | 999.8 |
| 20260505034558 | 9 | 115 | 19.3 | 29.0 | 0.00 | 1.70 | 1.24 | 60 | 999.8 |
| 20260505034503 | 9 | 111 | 11.3 | 29.0 | 0.00 | 1.70 | 1.24 | 60 | 999.7 |
| 20260505034359 | 8 | 113 | 4.8 | 29.0 | 0.00 | 1.70 | 1.24 | 60 | 999.8 |
| 20260505034258 | 8 | 116 | 16.1 | 33.8 | 0.00 | 1.70 | 1.24 | 59 | 999.8 |
| 20260505034158 | 8 | 146 | 9.7 | 33.8 | 0.00 | 1.70 | 1.24 | 59 | 999.6 |
| 20260505034059 | 8 | 139 | 12.9 | 37.0 | 0.00 | 1.70 | 1.24 | 59 | 999.6 |
| 20260505034000 | 8 | 157 | 24.1 | 37.0 | 0.00 | 1.70 | 1.24 | 59 | 999.6 |
| 20260505033900 | 8 | 104 | 16.1 | 37.0 | 0.00 | 1.70 | 1.24 | 59 | 999.7 |
| 20260505033759 | 8 | 149 | 12.9 | 37.0 | 0.00 | 1.70 | 1.24 | 59 | 999.8 |
| 20260505033659 | 9 | 146 | 17.7 | 37.0 | 0.00 | 1.70 | 1.24 | 59 | 999.8 |
| 20260505033558 | 9 | 140 | 11.3 | 37.0 | 0.00 | 1.70 | 1.24 | 59 | 999.8 |
| 20260505033359 | 9 | 142 | 9.7 | 37.0 | 0.00 | 1.70 | 1.24 | 58 | 999.8 |
| 20260505033300 | 9 | 162 | 12.9 | 37.0 | 0.00 | 1.70 | 1.24 | 58 | 999.9 |
| 20260505033058 | 9 | 125 | 12.9 | 41.8 | 0.00 | 1.70 | 1.24 | 59 | 999.8 |
| 20260505033005 | 9 | 123 | 6.4 | 41.8 | 0.00 | 1.70 | 1.24 | 59 | 999.8 |
| 20260505032859 | 9 | 136 | 4.8 | 41.8 | 0.00 | 1.70 | 1.24 | 58 | 999.9 |
| 20260505032758 | 9 | 157 | 17.7 | 41.8 | 0.00 | 1.70 | 1.24 | 58 | 999.9 |
| 20260505032558 | 9 | 123 | 16.1 | 41.8 | 0.00 | 1.70 | 1.24 | 57 | 999.9 |
| 20260505032359 | 9 | 168 | 16.1 | 41.8 | 0.00 | 1.70 | 1.24 | 56 | 1000.0 |
| 20260505032259 | 9 | 159 | 8.0 | 33.8 | 0.00 | 1.70 | 1.24 | 56 | 1000.0 |
| 20260505032159 | 9 | 166 | 16.1 | 33.8 | 0.00 | 1.70 | 1.24 | 57 | 1000.0 |
| 20260505032059 | 9 | 129 | 16.1 | 33.8 | 0.00 | 1.70 | 1.24 | 57 | 1000.0 |
| 20260505032001 | 10 | 124 | 29.0 | 33.8 | 0.00 | 1.70 | 1.24 | 57 | 1000.0 |
| 20260505031858 | 10 | 143 | 6.4 | 33.8 | 0.00 | 1.70 | 1.24 | 57 | 999.9 |
| 20260505031759 | 9 | 123 | 11.3 | 33.8 | 0.00 | 1.70 | 1.24 | 56 | 1000.1 |
| 20260505031559 | 10 | 146 | 20.9 | 45.1 | 0.00 | 1.70 | 1.24 | 56 | 1000.1 |
| 20260505031500 | 10 | 144 | 22.5 | 45.1 | 0.00 | 1.70 | 1.24 | 56 | 1000.1 |
| 20260505031400 | 10 | 107 | 11.3 | 45.1 | 0.00 | 1.70 | 1.24 | 56 | 1000.0 |
| 20260505031259 | 10 | 102 | 14.5 | 48.3 | 0.00 | 1.70 | 1.24 | 56 | 1000.1 |
| 20260505031158 | 10 | 119 | 25.7 | 48.3 | 0.00 | 1.70 | 1.24 | 56 | 1000.0 |
| 20260505031058 | 10 | 100 | 16.1 | 48.3 | 0.00 | 1.70 | 1.24 | 57 | 999.9 |
| 20260505030859 | 10 | 190 | 9.7 | 48.3 | 0.00 | 1.70 | 1.24 | 57 | 999.9 |
| 20260505030658 | 9 | 167 | 14.5 | 48.3 | 0.00 | 1.70 | 1.24 | 56 | 1000.1 |
| 20260505030558 | 10 | 131 | 20.9 | 57.9 | 0.00 | 1.70 | 1.24 | 56 | 999.9 |
| 20260505030500 | 9 | 128 | 8.0 | 57.9 | 0.00 | 1.70 | 1.24 | 57 | 1000.1 |
| 20260505030258 | 9 | 129 | 12.9 | 57.9 | 0.00 | 1.70 | 1.24 | 56 | 1000.3 |
| 20260505030159 | 9 | 169 | 22.5 | 57.9 | 0.00 | 1.70 | 1.24 | 58 | 1000.3 |
| 20260505030059 | 9 | 159 | 16.1 | 57.9 | 0.00 | 1.70 | 1.24 | 58 | 1000.2 |
| 20260505030005 | 9 | 146 | 17.7 | 57.9 | 0.00 | 1.70 | 1.24 | 59 | 1000.1 |
| 20260505025859 | 9 | 136 | 19.3 | 57.9 | 0.00 | 1.70 | 1.24 | 58 | 1000.0 |
| 20260505025658 | 9 | 160 | 14.5 | 37.0 | 0.00 | 1.70 | 1.24 | 62 | 1000.2 |
| 20260505025558 | 8 | 108 | 19.3 | 37.0 | 0.00 | 1.70 | 1.24 | 63 | 1000.4 |
| 20260505025359 | 8 | 242 | 8.0 | 37.0 | 0.00 | 1.70 | 1.24 | 67 | 1000.4 |
| 20260505025259 | 7 | 170 | 12.9 | 37.0 | 0.00 | 1.70 | 1.24 | 68 | 1000.3 |
| 20260505025158 | 7 | 94 | 9.7 | 37.0 | 0.00 | 1.70 | 1.24 | 75 | 1000.3 |
| 20260505025059 | 6 | 142 | 27.4 | 38.6 | 0.00 | 1.70 | 1.24 | 83 | 1000.1 |
| 20260505025005 | 6 | 96 | 11.3 | 19.3 | 0.00 | 1.70 | 1.24 | 88 | 1000.5 |
| 20260505024859 | 6 | 80 | 1.6 | 12.9 | 0.00 | 1.70 | 1.24 | 88 | 1000.6 |
| 20260505024758 | 6 | 255 | 8.0 | 12.9 | 0.00 | 1.70 | 1.24 | 88 | 1000.6 |
| 20260505024658 | 6 | 281 | 6.4 | 12.9 | 0.00 | 1.70 | 1.24 | 88 | 1000.7 |
| 20260505024558 | 6 | 350 | 6.4 | 9.7 | 0.00 | 1.70 | 1.24 | 87 | 1000.7 |
| 20260505024500 | 6 | 205 | 8.0 | 9.7 | 0.00 | 1.70 | 1.24 | 87 | 1000.6 |
| 20260505024359 | 6 | 213 | 6.4 | 16.1 | 0.00 | 1.70 | 1.24 | 86 | 1000.6 |
| 20260505024259 | 6 | 192 | 6.4 | 16.1 | 0.00 | 1.70 | 1.24 | 86 | 1000.5 |
| 20260505024158 | 6 | 323 | 4.8 | 16.1 | 0.00 | 1.70 | 1.24 | 85 | 1000.7 |
| 20260505024000 | 6 | 299 | 1.6 | 19.3 | 0.00 | 1.70 | 1.24 | 84 | 1000.8 |
| 20260505023859 | 6 | 310 | 4.8 | 19.3 | 0.00 | 1.70 | 1.24 | 83 | 1001.0 |
| 20260505023658 | 7 | 304 | 8.0 | 27.4 | 0.00 | 1.70 | 1.24 | 81 | 1000.9 |
| 20260505023459 | 7 | 10 | 8.0 | 35.4 | 0.00 | 1.70 | 1.24 | 78 | 1000.9 |
| 20260505023358 | 8 | 15 | 16.1 | 35.4 | 0.00 | 1.70 | 1.24 | 75 | 1000.7 |
| 20260505023258 | 8 | 302 | 8.0 | 35.4 | 0.00 | 1.70 | 1.24 | 71 | 1000.9 |
| 20260505023159 | 9 | 261 | 12.9 | 35.4 | 0.00 | 1.70 | 1.24 | 68 | 1001.0 |
| 20260505023058 | 10 | 341 | 12.9 | 35.4 | 0.00 | 1.70 | 1.24 | 59 | 1001.0 |
| 20260505023000 | 10 | 66 | 20.9 | 57.9 | 0.00 | 1.70 | 1.24 | 59 | 1000.8 |
| 20260505022758 | 10 | 59 | 14.5 | 57.9 | 0.00 | 1.70 | 1.24 | 56 | 1000.6 |
| 20260505022659 | 10 | 145 | 19.3 | 57.9 | 0.00 | 1.70 | 1.24 | 55 | 1000.6 |
| 20260505022559 | 10 | 155 | 17.7 | 57.9 | 0.00 | 1.70 | 1.24 | 56 | 1000.6 |
| 20260505022500 | 10 | 67 | 14.5 | 57.9 | 0.00 | 1.70 | 1.24 | 56 | 1000.4 |
| 20260505022258 | 10 | 112 | 19.3 | 57.9 | 0.00 | 1.70 | 1.24 | 57 | 1000.4 |
| 20260505022058 | 10 | 151 | 48.3 | 54.7 | 0.00 | 1.70 | 1.24 | 55 | 1000.6 |
| 20260505022000 | 10 | 151 | 29.0 | 54.7 | 0.00 | 1.70 | 1.24 | 57 | 1000.7 |
| 20260505021859 | 10 | 182 | 8.0 | 54.7 | 0.00 | 1.70 | 1.24 | 58 | 1000.8 |
| 20260505021759 | 10 | 128 | 37.0 | 57.9 | 0.00 | 1.70 | 1.24 | 56 | 1000.4 |
| 20260505021659 | 10 | 122 | 30.6 | 57.9 | 0.00 | 1.70 | 1.24 | 58 | 1000.5 |
| 20260505021504 | 10 | 93 | 40.2 | 57.9 | 0.00 | 1.70 | 1.24 | 58 | 1000.5 |
| 20260505021358 | 10 | 123 | 22.5 | 57.9 | 0.00 | 1.70 | 1.24 | 56 | 1000.6 |
| 20260505021259 | 10 | 130 | 38.6 | 59.5 | 0.00 | 1.70 | 1.24 | 58 | 1000.6 |
| 20260505021201 | 10 | 160 | 9.7 | 57.9 | 0.00 | 1.70 | 1.24 | 59 | 1000.6 |
| 20260505021058 | 10 | 190 | 4.8 | 57.9 | 0.00 | 1.70 | 1.24 | 59 | 1000.6 |
| 20260505021005 | 10 | 108 | 16.1 | 57.9 | 0.00 | 1.70 | 1.24 | 59 | 1001.0 |
| 20260505020858 | 10 | 169 | 16.1 | 45.1 | 0.00 | 1.70 | 1.24 | 60 | 1000.6 |
| 20260505020758 | 10 | 174 | 17.7 | 45.1 | 0.00 | 1.70 | 1.24 | 59 | 1000.7 |
| 20260505020659 | 10 | 129 | 19.3 | 45.1 | 0.00 | 1.70 | 1.24 | 60 | 1000.7 |
| 20260505020600 | 9 | 148 | 22.5 | 45.1 | 0.00 | 1.70 | 1.24 | 62 | 1000.6 |
| 20260505020359 | 9 | 161 | 24.1 | 41.8 | 0.00 | 1.70 | 1.24 | 63 | 1000.6 |
| 20260505020159 | 8 | 92 | 3.2 | 41.8 | 0.00 | 1.70 | 1.24 | 64 | 1000.6 |
| 20260505020059 | 8 | 159 | 16.1 | 41.8 | 0.00 | 1.70 | 1.24 | 66 | 1000.7 |
| 20260505020000 | 8 | 142 | 20.9 | 41.8 | 0.00 | 1.70 | 1.24 | 68 | 1000.7 |
| 20260505015858 | 8 | 182 | 19.3 | 41.8 | 0.00 | 1.70 | 1.24 | 76 | 1000.8 |
| 20260505015758 | 8 | 121 | 40.2 | 40.2 | 0.00 | 1.70 | 1.24 | 77 | 1000.8 |
| 20260505015659 | 7 | 151 | 3.2 | 30.6 | 0.00 | 1.70 | 1.24 | 79 | 1001.0 |
| 20260505015559 | 7 | 128 | 12.9 | 30.6 | 0.00 | 1.70 | 1.24 | 82 | 1001.0 |
| 20260505015504 | 7 | 62 | 16.1 | 30.6 | 0.00 | 1.70 | 1.24 | 82 | 1000.9 |
| 20260505015358 | 6 | 114 | 25.7 | 30.6 | 0.00 | 1.70 | 1.24 | 84 | 1001.0 |
| 20260505015258 | 6 | 142 | 20.9 | 22.5 | 0.00 | 1.70 | 1.24 | 89 | 1001.0 |
| 20260505015159 | 6 | 127 | 1.6 | 22.5 | 0.00 | 1.70 | 1.24 | 96 | 1001.1 |
| 20260505015059 | 6 | 43 | 3.2 | 22.5 | 0.00 | 1.70 | 1.24 | 96 | 1001.0 |
| 20260505015002 | 5 | 80 | 8.0 | 22.5 | 0.00 | 1.70 | 1.24 | 96 | 1001.1 |
| 20260505014758 | 5 | 123 | 6.4 | 22.5 | 0.00 | 1.70 | 1.24 | 96 | 1001.2 |
| 20260505014659 | 5 | 165 | 11.3 | 22.5 | 0.00 | 1.70 | 1.24 | 96 | 1001.3 |
| 20260505014559 | 5 | 136 | 12.9 | 12.9 | 0.00 | 1.70 | 1.24 | 96 | 1001.4 |
| 20260505014501 | 5 | 140 | 4.8 | 6.4 | 0.00 | 1.70 | 1.24 | 96 | 1001.4 |
| 20260505014358 | 5 | 83 | 4.8 | 12.9 | 0.00 | 1.70 | 1.24 | 96 | 1001.3 |
| 20260505014259 | 5 | 60 | 0.0 | 12.9 | 0.00 | 1.70 | 1.24 | 96 | 1001.5 |
| 20260505014159 | 5 | 59 | 1.6 | 12.9 | 0.00 | 1.70 | 1.24 | 96 | 1001.5 |
| 20260505014000 | 5 | 32 | 3.2 | 12.9 | 0.00 | 1.70 | 1.24 | 96 | 1001.5 |
| 20260505013858 | 4 | 31 | 1.6 | 12.9 | 0.00 | 1.70 | 1.24 | 96 | 1001.5 |
| 20260505013758 | 4 | 32 | 0.0 | 12.9 | 0.00 | 1.70 | 1.24 | 96 | 1001.5 |
| 20260505013659 | 4 | 32 | 3.2 | 12.9 | 0.00 | 1.70 | 1.24 | 96 | 1001.5 |
| 20260505013559 | 4 | 32 | 3.2 | 12.9 | 0.00 | 1.70 | 1.24 | 96 | 1001.6 |
| 20260505013459 | 4 | 32 | 8.0 | 12.9 | 0.00 | 1.70 | 1.24 | 96 | 1001.5 |
| 20260505013358 | 4 | 343 | 3.2 | 12.9 | 0.00 | 1.70 | 1.24 | 96 | 1001.7 |
| 20260505013258 | 4 | 342 | 6.4 | 12.9 | 0.00 | 1.70 | 1.24 | 96 | 1001.8 |
| 20260505013001 | 4 | 360 | 6.4 | 12.9 | 0.00 | 1.70 | 1.24 | 96 | 1001.8 |
| 20260505012859 | 4 | 316 | 6.4 | 12.9 | 0.00 | 1.70 | 1.24 | 96 | 1001.8 |
| 20260505012759 | 4 | 294 | 3.2 | 12.9 | 0.00 | 1.70 | 1.24 | 96 | 1001.9 |
| 20260505012658 | 4 | 290 | 4.8 | 12.9 | 0.00 | 1.70 | 1.24 | 96 | 1002.0 |
| 20260505012558 | 5 | 310 | 6.4 | 12.9 | 0.00 | 1.70 | 1.24 | 96 | 1002.1 |
| 20260505012505 | 5 | 321 | 3.2 | 12.9 | 0.00 | 1.70 | 1.24 | 96 | 1002.0 |
| 20260505012158 | 4 | 271 | 6.4 | 12.9 | 0.00 | 1.70 | 1.24 | 96 | 1002.1 |
| 20260505012059 | 4 | 289 | 8.0 | 12.9 | 0.00 | 1.70 | 1.24 | 96 | 1002.2 |
| 20260505012001 | 4 | 317 | 9.7 | 12.9 | 0.00 | 1.70 | 1.24 | 96 | 1002.3 |
| 20260505011859 | 4 | 331 | 4.8 | 12.9 | 0.00 | 1.70 | 1.24 | 96 | 1002.4 |
| 20260505011758 | 4 | 331 | 4.8 | 12.9 | 0.00 | 1.70 | 1.24 | 96 | 1002.3 |
| 20260505011500 | 5 | 294 | 4.8 | 12.9 | 0.00 | 1.70 | 1.24 | 96 | 1002.1 |
| 20260505011359 | 5 | 300 | 11.3 | 11.3 | 0.00 | 1.70 | 1.24 | 96 | 1002.2 |
| 20260505011258 | 5 | 316 | 1.6 | 9.7 | 0.00 | 1.70 | 1.24 | 96 | 1002.3 |
| 20260505011158 | 5 | 280 | 0.0 | 9.7 | 0.00 | 1.70 | 1.24 | 96 | 1002.2 |
| 20260505011059 | 5 | 277 | 4.8 | 9.7 | 0.00 | 1.70 | 1.24 | 96 | 1002.2 |
| 20260505010859 | 4 | 213 | 3.2 | 9.7 | 0.00 | 1.70 | 1.24 | 96 | 1002.6 |
| 20260505010801 | 4 | 169 | 3.2 | 9.7 | 0.00 | 1.70 | 1.24 | 96 | 1002.6 |
| 20260505010659 | 4 | 150 | 4.8 | 9.7 | 0.00 | 1.70 | 1.24 | 96 | 1002.7 |
| 20260505010559 | 4 | 127 | 4.8 | 8.0 | 0.00 | 1.70 | 1.24 | 96 | 1002.7 |
| 20260505010504 | 4 | 130 | 6.4 | 8.0 | 0.00 | 1.70 | 1.24 | 96 | 1002.7 |
| 20260505010359 | 4 | 174 | 4.8 | 8.0 | 0.00 | 1.70 | 1.24 | 96 | 1002.7 |
| 20260505010259 | 4 | 162 | 3.2 | 8.0 | 0.00 | 1.70 | 1.24 | 96 | 1002.8 |
| 20260505005958 | 4 | 142 | 4.8 | 8.0 | 0.00 | 1.70 | 1.24 | 96 | 1002.8 |
| 20260505005857 | 4 | 355 | 0.0 | 8.0 | 0.00 | 1.70 | 1.24 | 96 | 1002.7 |
| 20260505005757 | 4 | 355 | 0.0 | 8.0 | 0.00 | 1.70 | 1.24 | 95 | 1002.9 |
| 20260505005658 | 4 | 355 | 1.6 | 8.0 | 0.00 | 1.70 | 1.24 | 95 | 1002.9 |
| 20260505005556 | 4 | 355 | 1.6 | 8.0 | 0.00 | 1.70 | 1.24 | 95 | 1002.9 |
| 20260505005459 | 4 | 355 | 6.4 | 8.0 | 0.00 | 1.70 | 1.24 | 95 | 1002.9 |
| 20260505005357 | 4 | 346 | 1.6 | 8.0 | 0.00 | 1.70 | 1.24 | 95 | 1002.9 |
| 20260505005258 | 4 | 355 | 4.8 | 8.0 | 0.00 | 1.70 | 1.24 | 96 | 1003.1 |
| 20260505005158 | 4 | 11 | 0.0 | 16.1 | 0.00 | 1.70 | 1.24 | 96 | 1003.1 |
| 20260505005057 | 4 | 11 | 4.8 | 17.7 | 0.00 | 1.70 | 1.24 | 96 | 1003.2 |
| 20260505004858 | 4 | 311 | 4.8 | 17.7 | 0.00 | 1.70 | 1.24 | 96 | 1003.2 |
| 20260505004757 | 4 | 311 | 3.2 | 17.7 | 0.00 | 1.70 | 1.24 | 95 | 1003.2 |